GFSSW_prec_cthk_072.txt.gz
RH
33 32 30 29 28 29 29 31 29 27 30 32 32 29 27 25 22 22 22 23 26 27 26 21 19 19 20 21 22 23 22 26 28 28 32 35 40 37 42 43 46 47 51 57 57
37 34 33 32 29 28 27 26 27 28 28 29 29 29 28 28 24 23 25 25 26 27 27 24 22 25 25 25 25 25 24 25 26 28 30 30 35 36 44 47 48 51 52 56 55
42 39 36 35 34 33 31 27 26 27 27 27 26 25 26 29 29 28 31 30 26 27 28 27 25 28 29 27 25 24 25 24 27 29 29 29 33 33 40 46 46 43 46 52 51
47 45 41 37 36 35 33 32 30 27 25 26 26 25 25 26 30 34 34 32 31 32 33 29 27 30 30 26 25 25 24 25 26 30 29 28 32 36 37 36 34 35 43 55 45
45 46 46 43 40 36 33 34 33 31 29 28 26 27 27 30 34 27 31 30 32 35 35 31 29 31 31 25 27 24 23 25 30 32 27 27 31 35 38 36 42 48 54 52 41
36 39 38 38 38 37 35 34 32 31 29 29 29 34 35 38 29 28 31 32 34 35 36 34 31 30 32 28 27 25 22 23 23 24 32 35 37 40 43 47 50 55 57 43 36
28 28 27 28 28 25 25 29 31 30 29 29 28 34 36 31 25 28 35 36 36 36 39 35 34 34 33 30 26 21 18 22 22 30 37 39 41 44 47 54 58 62 50 35 36
26 21 22 23 22 22 15 13 15 21 26 26 28 33 33 32 27 25 28 35 35 37 40 37 36 37 36 31 26 22 20 29 29 35 39 40 39 45 48 50 57 62 51 31 35
38 30 25 26 23 21 21 11 11 11 11 17 25 31 33 34 34 35 28 32 36 37 39 39 41 41 36 32 31 22 24 29 39 38 40 40 43 54 51 51 60 57 58 36 36
21 19 16 16 16 20 16 11 9 10 10 15 22 32 28 29 36 35 35 33 33 37 38 40 43 41 39 36 32 30 25 37 42 41 46 43 51 52 50 57 62 54 57 43 39
28 30 27 19 15 17 14 11 11 18 23 18 26 24 17 27 34 37 36 36 36 38 41 41 44 40 39 32 25 28 36 40 38 44 51 51 52 47 42 54 59 50 49 43 38
19 16 25 27 21 14 16 13 15 31 28 18 21 25 18 18 30 31 39 39 39 41 41 41 40 40 39 31 28 27 38 40 37 44 48 50 44 46 48 51 59 53 49 43 40
31 29 20 20 21 21 18 19 26 33 30 18 13 14 12 15 21 22 36 40 38 41 42 43 42 41 41 30 30 34 36 34 36 41 47 47 48 47 47 51 59 44 44 39 40
37 40 40 29 23 24 30 28 29 37 29 17 12 10 12 14 20 13 20 37 38 37 40 41 43 42 40 36 37 41 34 35 38 40 48 47 47 46 47 55 55 43 42 37 37
45 46 45 46 35 32 34 31 37 28 15 6 9 7 14 15 13 16 14 27 35 36 39 37 44 44 45 42 46 42 37 43 45 46 45 44 48 40 44 48 44 43 42 44 41
49 50 52 53 49 31 43 41 49 44 38 10 10 16 20 20 16 20 23 23 32 35 36 35 42 46 41 41 51 45 39 42 48 50 50 45 51 39 41 43 41 42 43 41 42
56 58 58 56 60 48 43 51 62 61 14 10 15 24 20 20 22 24 28 25 34 38 36 38 40 43 46 47 49 47 46 52 53 60 54 49 52 40 42 42 42 35 40 40 44
64 67 69 64 74 63 62 63 69 30 29 16 20 26 37 26 21 26 30 27 33 36 37 40 44 42 46 45 46 45 42 51 53 59 55 54 50 41 40 39 42 37 38 39 44
77 81 80 79 88 76 80 72 47 35 32 27 25 40 32 38 42 33 32 31 28 35 39 41 40 38 41 46 47 49 50 41 58 61 68 58 56 43 41 36 40 38 40 39 42
88 95 87 95 96 89 87 60 49 40 35 40 46 46 46 61 59 57 42 28 32 34 40 42 45 39 44 49 49 51 46 57 58 74 72 57 64 53 40 39 39 38 38 35 37
99 98 85 97 98 93 69 65 62 56 46 40 45 50 59 63 72 69 58 41 34 33 42 44 45 45 47 52 55 55 51 57 56 66 71 72 60 48 42 41 41 41 38 35 38
99 96 88 96 95 79 70 74 66 66 64 51 36 37 61 66 76 79 68 59 52 49 44 45 54 53 47 47 54 56 47 50 65 67 74 81 59 50 47 41 43 43 41 36 37
98 97 93 91 83 78 76 71 70 66 64 57 38 31 50 61 76 72 63 64 62 58 52 52 59 63 53 53 58 55 47 55 52 56 70 79 58 47 47 44 41 42 42 39 35
99 98 94 87 74 76 82 75 70 64 65 59 46 36 45 59 63 69 68 77 75 66 58 55 59 51 50 51 62 62 50 51 54 61 56 62 56 59 52 46 42 45 43 45 45
98 89 79 78 75 75 76 70 70 70 63 61 52 45 42 49 51 50 74 76 78 71 66 55 57 52 51 55 63 66 57 57 56 53 52 42 59 53 50 52 49 47 48 46 47
97 87 86 81 83 81 76 67 67 72 66 60 57 46 41 48 49 59 72 80 87 78 67 62 60 57 60 60 69 71 63 58 60 58 57 49 52 49 43 43 49 49 46 44 45
96 92 90 88 89 82 56 68 74 74 66 54 55 51 40 48 60 72 80 76 82 85 80 72 68 62 62 68 74 74 65 62 64 62 58 53 48 49 48 48 48 43 47 40 44

GFSSW_prec_cthk_075.txt.gz
RH
42 37 35 33 31 31 28 28 28 27 25 23 22 22 24 26 25 23 22 22 23 24 25 25 22 23 22 22 24 25 28 26 26 27 26 25 28 35 38 39 41 41 41 48 53
46 45 40 37 35 35 32 29 27 26 26 24 24 25 25 26 28 28 24 24 25 27 28 25 25 25 24 25 26 27 28 24 24 26 27 26 29 33 37 37 35 39 40 47 53
51 50 48 43 39 37 36 33 32 29 25 24 23 24 24 25 27 29 31 30 28 28 27 25 26 29 29 28 29 30 27 24 25 25 26 25 30 32 37 36 31 35 36 48 58
51 50 50 49 44 39 37 35 35 33 32 28 23 23 24 25 28 32 34 34 33 31 29 30 29 32 31 29 29 31 27 25 21 23 26 25 28 33 32 31 34 37 44 48 57
38 43 42 47 47 41 39 37 34 32 32 32 29 25 25 27 29 22 31 36 34 35 34 33 34 33 33 31 29 30 27 25 21 22 23 25 29 31 33 36 42 47 54 61 57
34 35 42 45 43 39 35 37 36 33 31 30 30 30 33 38 29 29 28 28 32 33 34 35 37 33 33 34 32 29 29 23 20 22 26 32 34 38 35 38 41 52 59 59 50
40 40 38 37 36 37 33 27 28 31 31 30 29 30 36 36 28 26 26 33 34 36 37 37 36 36 34 36 33 31 28 20 18 22 28 31 34 38 36 39 41 52 60 61 43
40 44 38 31 34 34 27 21 20 19 21 24 26 30 32 32 29 29 24 28 34 39 40 39 39 37 37 38 37 33 28 21 21 28 36 35 35 34 38 40 44 57 61 63 44
23 34 41 39 34 27 23 19 17 13 13 16 18 24 24 25 29 34 36 34 31 37 40 39 41 40 40 42 41 35 30 22 26 33 39 40 37 39 38 41 51 55 62 64 47
24 19 21 29 36 31 27 24 29 21 14 15 22 23 13 14 23 31 35 36 32 36 40 40 41 43 41 45 46 36 32 25 28 38 42 39 38 43 42 47 50 54 57 60 47
44 39 30 27 19 17 13 12 13 21 27 16 22 16 11 18 22 27 34 38 36 32 39 42 43 43 44 48 42 35 31 31 30 35 39 42 40 47 45 44 49 57 49 48 48
47 48 44 40 36 27 26 31 32 28 27 19 18 20 12 12 22 18 27 34 35 38 39 41 44 43 45 47 44 39 34 33 34 37 39 40 42 45 47 42 45 53 45 48 49
35 37 43 43 27 16 17 27 39 43 40 24 10 11 12 11 17 11 20 29 35 37 39 41 43 42 44 45 43 40 34 30 35 39 36 37 40 48 46 40 41 50 43 41 38
29 38 42 40 32 23 30 33 32 39 34 23 19 13 11 10 19 9 11 17 30 32 38 39 42 43 45 47 42 41 28 39 41 41 40 38 47 42 44 45 44 49 40 35 33
36 39 40 43 40 33 38 38 34 33 16 7 12 17 18 14 14 15 11 12 25 28 33 35 40 42 46 47 44 42 39 47 46 42 43 42 46 39 40 43 40 37 33 34 30
37 39 42 46 44 42 39 42 44 41 26 9 11 20 21 20 16 20 18 15 15 27 29 31 35 39 41 44 44 39 50 54 51 46 50 43 48 40 38 36 34 34 33 33 33
41 46 49 50 52 55 42 49 60 54 17 13 21 27 23 24 24 20 25 20 22 26 31 32 31 35 41 48 48 51 53 62 58 55 51 46 53 40 37 40 38 37 35 36 35
50 53 54 56 61 63 50 65 66 32 26 19 24 27 29 28 27 26 30 32 25 26 31 35 38 34 36 41 47 53 53 65 62 58 49 50 52 37 38 41 39 35 31 32 35
53 56 58 61 68 75 67 71 44 41 34 31 26 29 29 40 40 34 31 30 28 31 34 40 38 33 36 44 45 49 54 53 65 68 63 50 40 32 33 35 34 32 32 33 36
60 64 61 68 78 86 83 50 47 44 43 40 41 33 38 42 52 51 43 35 31 29 35 42 42 36 38 44 47 51 54 61 65 72 63 53 46 39 36 39 35 33 32 35 36
67 72 63 75 89 91 74 63 56 52 52 53 47 44 40 49 50 68 53 42 40 39 41 42 47 44 45 46 50 56 56 58 61 63 61 63 50 36 40 42 37 33 34 36 31
79 83 73 85 95 86 76 68 67 71 70 65 59 52 48 49 55 66 80 50 57 61 52 43 47 52 51 49 49 53 54 57 68 72 63 61 53 41 43 46 41 35 39 41 34
95 91 95 91 94 89 84 78 76 75 74 70 68 64 45 42 56 62 64 66 65 68 61 64 55 58 52 51 50 57 58 56 62 67 65 69 54 52 51 46 47 40 40 40 40
98 94 99 95 83 86 88 83 81 76 76 76 75 72 59 48 47 62 65 71 79 77 75 74 60 50 49 48 50 57 58 58 62 69 62 60 44 55 51 50 47 47 44 46 43
97 92 91 83 77 80 81 78 82 78 73 73 70 76 72 65 50 56 58 72 73 76 90 77 68 59 51 52 60 59 60 63 66 59 53 51 44 46 48 47 49 46 46 45 48
96 87 90 83 81 86 83 77 77 76 73 75 72 73 72 63 50 54 65 69 79 86 89 85 75 70 64 62 62 66 64 66 68 64 53 51 48 39 38 44 54 47 48 51 52
97 97 94 89 86 82 67 73 74 74 72 75 76 76 72 62 49 46 50 65 77 91 91 94 84 77 72 68 71 75 60 65 68 66 62 54 51 44 44 45 49 50 46 49 53

GFSSW_prec_cthk_078.txt.gz
RH
39 39 38 37 35 34 33 32 30 27 25 25 25 24 22 21 22 22 23 21 22 24 24 24 25 24 24 25 26 25 29 30 27 28 23 23 25 27 27 30 35 40 40 39 39
47 47 45 43 39 38 36 36 34 32 29 26 26 26 24 23 23 26 26 25 25 26 26 27 26 24 25 26 26 27 30 29 27 27 24 23 25 26 27 29 33 39 40 43 49
44 45 46 45 44 41 39 38 37 34 33 30 28 26 24 25 26 29 32 30 30 30 30 30 29 25 27 29 28 27 28 28 28 29 25 23 24 27 28 29 32 38 43 49 51
35 38 39 43 43 43 39 37 39 37 35 34 32 30 27 22 27 32 34 34 32 33 33 31 29 30 33 31 29 29 30 31 27 28 26 25 27 30 26 27 33 39 41 51 58
34 33 33 36 36 38 39 37 37 38 37 35 34 33 31 30 26 25 30 35 37 37 35 34 33 32 34 32 31 30 31 30 27 24 25 24 25 27 28 31 36 44 50 56 62
33 34 33 31 31 30 32 34 35 37 36 36 36 33 33 39 33 27 28 27 30 38 38 38 37 35 34 36 35 32 31 31 26 23 23 22 25 30 29 31 39 51 53 57 61
27 28 31 31 33 31 30 32 38 40 35 34 37 35 35 37 33 32 31 29 31 30 32 35 38 38 37 36 35 35 35 32 26 23 23 23 27 34 30 35 41 49 59 59 63
28 27 28 33 37 34 31 29 27 28 38 30 31 31 32 34 31 32 30 32 28 32 35 36 40 41 39 38 37 37 38 36 24 23 25 31 32 34 35 38 41 49 59 61 65
34 29 25 29 34 35 34 24 23 27 26 31 30 24 24 22 26 31 36 37 36 29 36 41 42 43 42 42 42 41 45 38 26 25 28 34 31 36 38 40 41 48 54 61 59
33 38 40 28 21 20 33 32 30 26 25 23 32 30 18 13 19 27 36 39 40 34 38 43 43 44 45 45 48 48 48 37 31 26 32 35 35 32 37 42 41 48 55 58 53
49 49 46 41 29 20 16 24 38 34 40 32 33 26 18 15 20 25 24 35 39 37 39 45 45 45 42 45 45 45 45 38 34 27 34 39 37 34 36 41 44 51 56 54 51
57 55 59 60 52 42 37 32 33 47 34 23 22 25 19 19 23 18 22 26 33 39 38 40 40 40 42 46 47 49 48 41 34 29 36 38 33 29 37 37 45 50 54 53 54
34 44 46 59 54 47 44 49 50 51 51 33 22 23 15 12 16 9 15 24 27 33 37 36 36 40 41 46 48 49 48 44 39 34 42 44 36 28 32 37 41 43 51 49 47
29 38 41 44 41 41 36 45 45 46 45 23 20 25 24 22 22 9 10 11 23 27 32 37 34 39 42 44 46 50 42 43 39 41 46 43 47 29 30 34 40 45 48 41 38
32 34 35 41 39 42 49 46 45 38 19 11 16 19 22 19 24 22 13 12 13 19 21 31 34 40 42 44 48 48 45 46 41 46 49 48 51 31 28 34 36 39 39 36 34
28 37 42 48 39 45 38 43 43 43 26 12 19 27 29 21 18 24 23 17 16 17 18 22 28 34 38 45 47 48 48 45 46 52 64 52 54 35 29 33 31 31 32 29 33
36 41 48 48 39 48 45 46 58 57 19 18 27 25 22 27 27 22 27 24 22 25 26 25 26 28 35 41 44 47 50 56 60 70 63 51 55 32 28 30 33 36 30 30 32
33 48 51 56 54 59 54 57 63 37 34 22 27 30 26 24 28 30 27 30 25 22 21 22 28 24 29 37 45 50 50 60 63 66 61 60 57 35 26 27 34 37 33 32 34
40 50 56 55 57 56 63 64 43 44 39 34 27 27 29 33 31 34 34 33 30 30 28 28 27 22 23 30 40 50 52 47 63 72 71 62 53 34 24 25 32 37 36 31 32
53 56 56 62 67 62 66 46 45 46 47 41 37 36 35 36 40 43 45 44 40 36 35 34 37 31 32 33 35 42 51 62 68 77 77 64 59 40 25 26 32 34 34 29 31
64 64 59 59 74 70 56 52 48 47 50 52 52 46 44 41 38 47 51 56 53 46 44 42 45 41 37 39 41 46 49 57 63 65 63 68 57 38 29 30 35 35 36 36 35
71 71 63 68 73 72 57 57 49 57 58 60 60 60 57 52 45 44 54 59 65 58 60 50 44 47 41 44 47 45 51 54 65 67 70 68 52 41 36 35 36 37 35 36 36
75 72 70 72 73 67 65 62 60 58 69 75 74 71 70 61 53 44 48 56 58 69 80 75 60 48 43 42 49 52 54 57 62 70 75 72 56 46 38 42 43 44 38 39 42
86 78 81 84 65 70 71 67 67 68 80 85 86 82 81 73 59 55 44 41 64 77 76 88 77 62 44 42 46 56 54 58 62 70 68 66 55 51 43 45 48 48 45 38 39
79 87 67 80 66 66 80 71 74 81 83 83 86 86 85 81 73 65 47 33 47 65 73 95 90 70 53 46 47 53 55 58 58 57 60 54 57 52 47 49 50 50 52 45 43
75 69 76 80 84 87 88 81 79 84 84 86 85 81 83 82 75 66 59 50 59 71 79 91 94 80 58 51 52 54 53 56 57 59 59 58 55 53 50 50 51 50 55 49 47
85 85 87 84 81 90 84 83 82 88 88 85 86 85 81 76 75 68 62 48 55 64 85 97 97 98 74 61 58 65 50 53 55 55 56 61 58 57 54 50 45 46 52 55 54

GFSSW_prec_cthk_081.txt.gz
RH
46 46 44 41 36 33 32 32 32 32 29 28 27 27 26 25 25 24 23 23 22 20 22 25 25 24 24 25 25 26 27 28 25 26 27 28 25 25 24 26 28 27 26 30 35
39 39 39 37 37 37 35 34 32 33 33 32 31 31 28 27 27 28 27 27 26 27 25 26 27 26 27 26 26 27 27 26 23 26 28 27 27 26 26 28 27 27 28 32 35
32 32 34 35 36 38 38 36 34 34 34 34 34 33 31 31 29 29 33 33 32 34 32 29 28 27 27 28 27 27 28 26 26 28 29 27 27 27 27 24 24 26 28 34 40
30 30 30 30 30 32 33 34 34 34 34 35 35 36 33 32 35 33 34 37 37 37 37 34 34 31 29 28 28 29 29 27 28 29 30 27 27 25 26 23 22 27 31 36 43
27 27 27 28 29 29 29 30 31 32 32 34 35 36 37 35 38 36 33 32 41 42 39 35 33 32 33 32 31 32 32 28 31 31 28 27 26 24 22 24 27 31 34 38 47
26 26 27 28 27 27 26 27 27 27 29 29 33 35 37 41 41 43 39 34 31 38 42 40 36 36 36 35 33 33 34 31 32 32 28 26 26 25 22 26 29 34 35 43 51
25 24 24 26 26 24 25 25 25 25 28 32 32 35 33 34 38 40 39 38 33 30 33 38 38 39 39 37 36 36 36 33 35 33 26 25 27 25 29 31 35 41 38 48 54
28 25 25 27 26 26 25 25 28 29 27 23 25 33 35 32 33 38 38 37 37 32 31 33 33 37 36 38 39 39 38 37 37 31 26 26 24 27 32 34 37 44 44 48 51
31 30 31 31 32 32 27 24 27 31 31 28 29 29 27 31 28 37 38 38 43 41 34 36 38 38 39 40 40 40 38 40 38 32 26 29 28 30 33 35 39 44 47 47 54
32 35 38 36 37 32 30 27 25 29 37 35 36 32 27 25 25 31 42 40 43 46 39 40 43 43 44 42 39 44 45 43 39 33 29 30 30 30 32 36 39 43 47 51 53
30 34 39 49 47 41 41 33 28 28 31 36 35 31 23 22 30 39 32 37 40 43 44 44 46 46 43 45 44 44 42 42 40 38 35 30 30 34 34 36 39 43 46 53 53
28 33 36 45 46 52 49 47 50 48 40 29 29 36 29 28 30 33 30 33 38 39 43 46 45 44 44 46 45 44 43 41 41 42 37 32 31 33 34 32 38 41 46 49 56
34 32 36 39 41 48 47 54 58 58 57 38 31 35 30 24 30 23 35 27 29 35 35 37 39 42 44 45 46 47 48 44 45 46 39 33 34 36 34 34 36 41 43 48 52
31 32 35 40 42 43 41 46 55 60 48 36 32 32 37 29 29 18 19 23 36 30 26 33 33 37 42 39 40 42 44 46 48 48 42 36 37 35 32 28 30 35 40 46 50
30 32 37 46 39 43 47 52 57 52 32 23 30 30 31 28 27 34 29 19 13 22 25 28 27 28 36 42 44 43 45 47 47 46 43 35 39 35 37 28 25 31 37 41 44
27 32 44 44 43 45 54 49 49 53 34 26 34 32 27 34 28 26 32 38 28 20 24 22 22 23 27 35 41 45 48 50 50 49 48 35 45 35 37 30 28 30 32 34 38
29 33 47 53 42 50 54 52 62 54 22 27 27 25 24 26 29 27 28 30 32 31 23 25 19 19 21 32 41 47 51 53 58 59 41 39 49 35 36 30 28 31 33 32 31
38 39 48 53 52 58 53 55 57 38 42 33 31 33 26 26 30 35 34 31 28 27 26 25 25 23 19 22 32 41 48 53 53 54 43 46 48 38 40 30 27 31 35 34 32
49 44 42 49 54 56 60 63 44 42 38 33 26 28 31 35 34 36 38 37 35 32 29 27 23 19 19 19 21 37 43 45 53 64 62 51 48 39 39 33 27 28 35 37 32
56 56 45 51 64 66 60 54 49 48 48 43 32 34 37 35 38 43 46 46 44 43 36 36 34 27 30 27 26 29 35 52 54 55 57 51 53 39 42 34 27 29 36 38 38
69 67 50 54 76 74 62 54 48 43 43 46 45 42 43 43 42 44 43 52 55 55 49 41 41 39 34 34 32 33 36 43 47 50 48 51 49 41 43 39 31 34 38 37 36
76 73 59 70 76 76 73 64 52 48 43 44 47 49 48 52 49 46 44 43 53 57 64 64 53 45 38 39 37 37 38 41 51 59 56 52 46 42 44 43 34 37 39 38 36
79 71 69 84 79 67 66 63 59 51 48 50 48 51 59 59 54 51 50 42 46 49 64 67 69 57 41 37 39 41 44 45 45 53 52 64 53 46 47 50 42 43 43 41 41
84 81 77 83 81 74 64 70 72 57 51 55 58 58 67 73 71 62 58 48 43 43 49 65 77 80 63 48 46 44 46 49 50 55 43 44 50 49 46 50 46 46 49 49 46
92 79 68 77 76 75 74 59 58 60 59 59 62 69 81 87 85 74 69 62 51 39 47 54 64 66 73 69 63 49 48 52 54 49 53 46 50 49 46 51 46 49 47 52 51
87 81 80 66 74 76 70 63 58 67 68 66 67 83 85 85 85 80 75 69 63 62 57 63 86 91 75 72 73 61 48 46 50 52 53 54 53 52 48 52 51 52 54 52 53
86 85 83 81 87 81 84 76 64 84 81 80 86 88 92 87 88 77 78 73 69 64 59 57 81 93 68 68 86 74 41 45 47 50 51 52 48 50 49 49 53 54 58 52 53

GFSSW_prec_cthk_084.txt.gz
RH
36 34 35 33 32 32 32 32 30 29 28 29 29 29 28 29 29 29 29 27 25 24 22 21 23 25 24 27 26 26 24 25 24 22 21 24 26 26 25 27 27 27 26 28 27
32 30 30 31 30 31 31 32 31 31 31 30 31 31 30 31 32 33 31 31 29 27 29 27 27 28 27 28 28 27 25 26 24 22 23 25 27 26 25 27 25 28 26 27 30
34 31 28 27 27 27 27 27 29 30 30 31 32 32 32 32 35 37 37 36 35 31 33 33 33 32 30 30 30 28 25 26 28 25 24 26 27 27 27 25 26 29 26 26 32
30 28 26 25 24 25 25 25 25 26 27 28 29 33 32 32 35 36 38 41 38 35 34 36 37 35 33 32 30 28 26 27 29 27 25 26 26 27 27 24 25 23 22 27 36
25 24 24 22 21 20 20 22 22 22 23 24 26 30 33 36 39 37 36 35 44 41 39 37 39 38 35 32 30 30 27 30 31 31 29 27 27 26 24 23 23 23 25 30 37
25 22 21 21 21 20 19 18 20 20 20 23 25 27 34 33 35 38 38 38 40 44 46 40 42 42 37 34 34 33 33 32 34 33 31 29 26 28 21 23 25 27 31 36 37
29 26 24 24 22 20 19 19 18 19 20 21 22 24 32 32 31 31 34 38 41 44 48 47 41 40 40 39 38 37 36 34 34 36 34 30 28 25 21 26 29 33 36 40 42
27 26 25 27 26 24 22 19 18 18 18 19 21 31 32 25 24 31 30 34 40 41 42 47 44 39 42 41 39 39 38 37 35 36 33 29 27 25 24 29 31 33 36 40 44
26 23 26 27 28 27 26 22 18 17 17 19 25 35 32 30 28 28 28 31 37 44 44 40 40 35 38 41 38 36 36 37 40 37 37 34 28 30 29 31 30 33 37 40 43
23 22 23 25 26 27 28 25 22 23 28 30 32 34 31 31 30 37 36 39 39 45 51 44 47 42 43 42 35 37 39 42 40 38 39 34 30 28 29 30 30 32 38 41 42
21 21 22 23 23 23 23 30 36 38 36 37 30 24 22 33 32 28 30 35 33 47 47 48 51 46 46 47 45 42 42 40 39 40 42 38 35 29 28 32 32 33 35 41 43
19 20 23 23 22 22 26 35 41 47 44 40 36 33 26 33 38 36 35 37 38 33 45 50 47 47 50 49 49 45 43 41 41 41 43 40 38 30 28 33 33 31 34 39 42
21 25 24 22 23 23 28 33 42 51 50 42 48 44 38 31 34 35 37 38 40 35 38 47 42 44 51 55 52 46 45 43 42 45 43 41 39 33 26 31 31 30 32 37 41
25 24 20 23 24 30 35 35 41 52 49 33 41 44 42 37 32 32 27 35 38 40 36 40 48 39 47 48 46 45 44 43 45 46 43 43 37 27 32 35 34 31 30 36 39
20 22 24 27 34 33 41 41 45 50 36 26 33 39 39 38 33 43 41 32 32 38 48 37 29 39 34 38 48 44 43 40 43 45 46 45 42 28 29 35 33 29 25 32 38
20 24 25 29 32 30 44 44 51 51 38 25 36 39 35 37 35 35 41 36 38 28 28 37 42 40 36 33 35 42 45 45 45 46 49 42 39 29 31 37 34 31 27 28 34
21 26 30 37 43 42 46 53 54 46 28 29 36 34 34 37 37 35 42 36 36 38 36 23 19 22 28 27 30 37 41 47 52 53 46 35 39 32 33 38 34 29 28 30 33
23 32 36 35 43 49 52 60 62 37 34 36 37 33 28 32 39 36 34 39 38 31 31 34 32 27 26 19 22 27 38 45 52 51 48 40 41 33 34 39 38 29 29 31 34
29 36 39 39 46 61 61 63 38 39 38 36 35 35 39 36 35 37 37 35 40 37 30 26 26 28 23 24 16 26 31 35 45 45 55 45 45 37 34 40 40 31 28 30 35
39 44 39 48 52 72 70 60 51 50 44 33 32 32 40 35 31 36 41 48 44 44 41 35 32 25 25 26 25 24 31 35 39 47 48 39 44 42 35 40 42 34 27 32 37
53 59 45 51 62 84 76 68 55 48 50 47 41 36 35 40 36 33 38 46 50 52 52 46 38 37 34 33 29 29 32 34 32 37 41 41 39 43 36 40 46 39 29 34 37
63 66 57 69 79 77 80 74 68 50 43 47 48 45 37 39 38 37 37 40 48 51 56 61 57 42 35 40 34 37 36 34 40 34 41 40 39 46 43 43 45 42 34 39 42
75 69 62 83 88 73 69 73 61 58 54 48 45 45 47 50 51 47 44 43 41 41 50 56 69 58 43 33 35 36 38 37 39 43 42 56 44 38 42 38 43 46 42 44 47
90 83 72 79 82 82 73 72 86 71 63 63 58 54 54 58 63 59 53 49 52 48 39 39 42 58 62 65 60 57 46 44 46 48 45 37 40 46 46 42 47 49 47 49 47
92 80 72 76 67 72 82 78 76 77 67 64 65 56 55 59 67 68 67 63 59 53 50 46 45 41 48 54 49 50 47 47 43 38 48 41 41 39 40 42 48 52 51 54 51
94 90 81 68 66 72 92 71 79 70 72 63 56 50 56 66 70 72 71 69 63 62 63 57 60 56 53 60 59 51 47 43 41 42 41 47 44 51 52 45 47 51 52 54 56
96 96 88 75 73 92 75 79 81 78 69 56 60 66 65 76 79 82 77 73 67 65 69 67 59 61 52 60 76 62 58 61 44 40 38 45 46 55 51 47 43 47 55 52 57

GFSSW_prec_cthk_087.txt.gz
RH
38 34 32 30 29 28 28 28 28 28 29 29 29 30 29 29 30 28 31 30 29 26 26 28 27 25 23 22 24 26 26 25 24 24 22 22 24 25 26 26 28 35 31 34 27
38 36 31 29 29 28 27 26 26 26 27 27 28 30 30 30 31 34 32 33 31 29 29 33 31 29 26 25 25 27 27 25 26 25 23 24 24 25 26 28 32 36 36 33 26
33 30 27 26 26 25 25 25 25 24 25 24 25 28 28 28 35 32 35 36 37 37 32 37 36 35 32 28 28 29 28 28 27 26 24 25 25 26 28 29 29 33 34 37 33
34 30 27 26 25 24 23 22 22 22 21 21 22 23 23 25 34 33 32 33 37 39 41 40 39 38 36 32 31 30 29 29 27 26 26 27 25 24 27 30 28 28 27 26 27
35 30 28 26 24 23 22 21 19 19 18 19 19 20 21 28 32 28 34 34 32 40 43 42 41 39 37 35 34 32 31 29 27 28 28 30 28 25 27 28 24 25 24 24 27
35 30 27 24 24 24 21 18 17 16 16 16 16 17 23 27 25 26 27 34 39 43 44 46 46 45 39 36 36 35 30 29 30 30 31 33 31 26 29 26 24 23 24 28 32
33 31 27 25 23 22 23 21 18 17 16 15 15 16 22 23 21 24 27 28 36 41 45 49 50 48 47 44 39 38 36 33 32 34 34 35 31 30 31 26 23 26 28 31 36
30 28 24 21 23 23 22 21 19 17 15 14 14 20 24 18 19 24 24 27 32 36 43 49 50 52 53 48 42 41 41 37 34 37 36 37 32 32 29 27 25 30 35 35 36
27 26 22 19 21 20 18 17 17 17 17 15 18 24 20 20 21 26 28 26 26 30 35 40 42 48 52 52 48 41 41 38 34 40 39 36 33 33 30 32 29 31 35 37 38
25 23 21 18 20 17 16 14 16 19 24 27 32 34 25 18 20 27 34 27 29 31 31 36 39 41 44 48 46 44 38 35 35 40 42 39 34 33 32 34 34 35 37 41 40
28 22 20 18 18 14 14 19 28 32 35 29 32 31 26 24 20 20 36 39 41 40 31 32 36 41 49 47 45 48 41 40 40 43 44 41 38 34 33 30 30 37 37 42 39
29 22 19 19 17 13 16 28 31 28 25 21 20 25 31 30 27 22 31 43 45 39 36 32 32 39 51 51 51 56 47 43 41 40 44 40 40 35 33 32 29 32 41 43 42
29 23 23 21 16 15 27 26 25 30 27 17 19 23 29 35 33 32 28 40 49 49 35 40 36 37 48 55 61 54 55 53 47 45 46 42 40 37 32 33 33 29 33 37 41
27 23 25 22 17 33 36 35 31 30 27 16 21 24 26 30 38 38 33 34 39 45 39 44 39 46 44 47 53 58 57 53 51 49 49 45 41 36 34 29 29 30 35 34 34
28 21 23 25 31 34 44 35 29 30 18 21 22 25 31 32 38 44 41 32 33 44 52 45 45 37 46 48 47 53 55 55 54 48 49 44 43 33 35 33 32 34 38 39 34
26 24 22 27 30 32 39 35 35 34 22 19 25 28 32 34 32 45 44 39 34 36 48 47 50 48 36 37 51 43 57 54 52 49 51 45 46 41 35 34 35 36 36 37 34
29 24 23 33 41 50 52 51 45 31 20 23 34 33 33 41 37 38 37 41 32 42 42 45 37 36 48 39 43 46 48 58 60 58 53 44 41 43 34 36 37 37 36 32 32
28 21 28 29 36 43 53 70 55 24 23 32 33 36 30 35 42 49 51 38 42 36 40 38 40 28 26 34 46 50 47 49 54 54 52 46 46 43 31 34 35 36 37 36 33
30 28 32 34 38 47 75 76 49 34 41 41 36 33 36 38 43 41 52 50 46 48 44 38 38 36 30 27 23 31 43 34 45 54 61 56 50 47 33 35 38 39 38 38 32
46 51 43 40 46 66 84 73 55 59 57 47 42 42 50 46 44 44 60 53 50 46 45 44 41 32 27 35 31 27 23 32 34 49 56 46 41 37 41 36 40 39 43 41 29
60 57 40 41 57 88 90 83 62 72 62 51 54 56 52 58 38 41 50 59 50 50 52 49 43 41 30 25 37 34 36 36 40 40 41 48 38 44 46 40 46 48 43 41 30
69 68 60 57 74 79 81 74 90 71 63 49 54 56 58 51 42 41 50 51 51 46 49 57 56 44 43 43 35 38 37 29 36 44 45 47 43 47 45 40 46 45 47 39 34
75 71 72 72 86 76 64 70 90 85 72 62 48 45 46 42 44 39 50 57 49 40 54 46 54 54 44 34 39 37 37 40 42 43 45 56 51 46 44 49 45 44 50 46 40
89 89 77 77 74 81 82 68 71 89 90 74 66 51 46 47 53 56 49 49 46 42 42 38 37 44 60 78 64 50 43 46 44 47 47 46 49 46 56 51 46 46 54 53 50
86 81 80 83 67 72 79 86 82 72 86 78 81 74 62 57 53 57 55 58 55 53 44 44 44 36 31 34 53 55 55 53 44 43 47 46 50 48 42 43 56 51 55 55 54
89 83 79 76 72 81 67 70 77 92 92 82 77 76 62 55 61 76 76 73 68 59 57 63 56 54 51 37 32 37 44 39 42 46 45 47 43 49 50 53 52 42 47 52 55
89 87 90 80 75 77 72 71 63 79 81 84 81 64 58 62 60 67 73 67 65 68 64 65 64 65 58 42 60 48 41 45 48 50 49 46 42 46 49 54 54 48 46 50 55

GFSSW_prec_cthk_090.txt.gz
RH
41 37 35 34 31 31 29 26 26 26 27 27 27 27 27 28 30 29 30 30 30 27 25 25 28 28 29 27 25 24 24 23 22 24 27 28 23 21 24 24 26 28 32 37 36
41 38 35 32 29 28 27 27 24 24 24 25 26 26 25 25 28 31 31 32 31 30 28 27 32 34 32 28 28 26 26 24 25 26 28 25 23 23 25 26 26 28 31 33 35
37 34 31 30 28 26 26 25 24 23 21 21 21 23 23 22 26 31 34 33 32 33 33 29 33 37 36 34 31 30 29 26 27 28 29 25 23 24 23 25 27 29 30 34 38
39 34 32 30 29 28 25 23 22 22 22 21 20 20 20 19 27 31 30 30 31 31 35 34 35 38 38 38 36 34 31 29 29 30 29 26 24 25 25 25 27 28 29 29 27
42 41 37 33 31 28 28 27 24 22 20 20 19 18 18 23 25 19 25 29 30 30 36 38 37 40 38 40 42 38 34 33 31 30 29 27 26 26 27 27 28 27 26 25 25
39 38 38 34 31 29 27 25 24 23 22 19 17 16 21 23 17 21 20 23 28 36 40 42 40 40 40 39 41 40 38 34 32 31 29 30 28 30 28 32 28 25 24 23 24
38 36 36 33 28 25 26 24 21 21 20 19 18 16 22 17 14 17 18 20 23 29 35 42 43 44 43 43 41 43 42 39 34 31 31 33 33 30 31 33 30 28 25 26 27
35 34 32 29 26 23 22 20 18 17 18 18 18 18 21 14 15 15 16 19 21 24 32 36 40 43 46 47 46 46 46 42 36 34 32 37 34 31 34 34 30 28 26 28 35
35 32 31 28 25 21 17 16 14 18 18 18 18 25 24 21 18 18 17 17 22 22 25 31 36 43 48 49 51 49 45 45 43 38 35 37 38 34 34 34 27 27 28 35 38
36 31 28 26 23 17 14 12 12 22 28 28 24 32 27 22 18 20 23 27 22 21 23 23 25 29 36 47 45 47 48 48 46 42 36 36 39 37 35 37 33 32 34 36 42
39 34 28 25 21 17 12 10 26 30 37 27 28 21 24 21 21 22 20 29 21 21 23 25 26 23 28 37 43 50 51 50 45 45 39 40 45 45 36 37 34 31 32 35 40
38 35 32 29 23 17 14 26 32 32 26 16 16 16 13 17 21 24 23 31 32 34 37 32 24 25 27 32 42 45 46 47 47 49 43 46 45 44 35 35 36 35 31 34 38
37 35 33 26 19 13 24 32 31 32 30 14 9 11 14 17 16 16 25 24 28 31 38 45 34 30 32 28 37 44 48 50 59 58 50 45 45 45 34 35 37 37 34 31 38
40 35 39 27 23 25 38 40 39 33 32 13 18 17 18 21 19 16 21 26 27 32 43 46 45 40 46 42 33 40 47 59 67 71 66 52 51 45 37 37 39 37 34 32 33
38 35 29 24 25 33 48 50 40 40 34 24 25 22 21 16 21 22 22 28 28 39 42 33 41 44 43 41 44 43 51 63 72 74 66 54 53 43 34 34 37 37 31 28 33
37 36 26 20 23 19 39 40 48 49 31 13 21 19 20 18 20 28 30 32 34 36 40 38 39 47 48 49 44 51 53 57 63 68 74 59 53 45 36 37 41 36 32 34 35
37 36 26 27 34 54 61 65 64 48 13 16 28 23 23 28 25 26 34 29 32 38 38 35 38 44 54 54 48 47 55 63 75 78 67 52 50 45 35 36 41 40 38 36 36
40 37 30 25 24 42 55 74 71 30 28 21 41 47 34 28 37 33 38 35 31 37 37 41 40 39 46 46 46 50 49 56 67 80 83 68 57 40 39 38 40 41 37 36 37
41 36 33 24 31 41 65 72 44 42 42 47 53 39 39 35 39 44 43 45 49 46 45 48 44 35 39 42 46 52 55 46 56 56 68 67 65 50 43 35 35 37 39 39 40
48 44 45 45 44 65 72 67 51 46 68 67 72 55 47 45 40 50 50 49 60 68 50 53 60 53 44 38 40 42 51 61 61 63 58 51 53 50 44 43 40 42 40 42 40
51 51 44 46 66 81 77 61 60 50 78 86 67 73 70 71 56 56 68 72 64 60 44 58 58 47 50 35 35 38 39 44 43 47 52 53 53 53 51 50 47 48 52 45 40
56 69 63 63 81 75 65 61 65 69 73 89 86 67 88 78 72 62 55 65 73 60 45 65 49 53 52 50 44 44 44 36 43 49 48 41 44 50 52 60 54 52 52 43 39
70 69 76 97 88 76 65 62 64 73 75 81 74 61 73 70 69 61 56 60 46 53 49 41 53 61 55 46 51 50 53 49 44 47 53 64 45 44 55 49 55 48 54 53 43
89 86 64 94 88 85 78 70 59 61 80 77 76 61 65 63 56 60 53 57 47 49 54 42 37 45 63 82 67 62 55 52 55 62 53 44 40 39 46 46 47 50 50 55 44
93 88 87 85 82 78 74 72 87 68 65 78 83 75 57 49 48 51 53 59 62 72 59 51 42 36 27 44 58 57 52 54 53 53 55 53 51 41 45 49 52 55 61 54 55
91 86 83 88 93 85 58 61 74 78 81 80 80 82 71 82 68 66 73 72 66 70 55 55 61 49 48 34 40 53 47 43 46 46 45 44 40 41 40 45 47 49 52 46 53
88 89 90 85 80 80 81 79 62 68 65 77 93 83 71 75 70 67 77 77 74 70 64 61 62 59 53 44 41 41 35 35 36 39 42 50 50 49 40 44 50 51 46 45 48

GFSSW_prec_cthk_093.txt.gz
RH
41 39 36 35 32 32 32 31 30 28 27 27 25 23 23 24 25 25 29 29 29 30 28 26 26 27 28 28 27 27 29 26 22 23 22 28 33 29 23 22 23 26 26 27 29
42 40 36 32 31 31 31 31 31 30 27 26 25 24 21 21 22 24 26 30 30 31 30 28 27 29 30 31 30 28 29 25 23 24 26 30 32 26 24 23 23 26 27 27 29
45 43 40 37 33 31 29 28 28 27 25 25 24 23 22 20 20 24 27 29 30 32 32 30 30 30 34 35 33 31 28 26 25 25 28 30 30 28 25 23 24 26 28 29 30
43 41 41 39 36 34 32 29 28 27 27 25 23 22 21 22 24 30 25 25 27 29 29 34 34 32 34 37 38 35 31 30 28 29 30 29 30 28 25 24 24 26 29 28 31
41 41 40 39 37 33 31 30 28 26 26 26 24 23 21 23 24 18 18 20 21 25 28 32 35 35 34 37 40 37 36 35 33 32 31 29 30 28 27 25 26 28 29 28 29
41 41 40 38 35 33 30 29 27 26 25 25 24 23 23 25 18 19 20 21 21 22 28 33 37 37 35 36 37 39 38 36 34 33 32 33 30 30 25 27 28 29 30 28 28
41 40 40 39 36 34 31 28 26 24 24 24 24 25 27 20 16 17 17 18 18 19 22 33 38 39 37 38 37 37 36 34 32 33 37 36 32 31 29 30 30 30 30 28 27
45 38 35 36 34 31 27 24 22 21 22 25 25 23 25 18 17 16 14 15 17 18 21 27 32 33 35 38 39 41 39 35 32 36 38 42 31 34 35 33 33 31 31 29 28
50 45 38 33 32 31 25 22 20 19 20 29 29 24 25 21 22 18 17 15 14 15 18 24 28 30 35 40 44 45 42 38 36 40 43 47 34 38 37 35 34 33 30 28 27
49 48 41 33 30 27 23 17 21 24 31 32 36 38 26 19 19 21 21 20 21 17 18 20 25 27 31 41 43 44 44 41 40 43 51 51 41 40 43 39 37 34 32 31 29
36 40 45 38 31 26 19 17 28 30 34 30 32 25 22 20 20 19 19 23 24 22 18 20 21 22 25 29 33 35 38 39 38 43 47 47 45 42 40 42 40 36 34 33 30
39 37 34 38 37 29 25 30 40 43 32 23 19 19 16 19 26 13 20 22 29 21 20 20 18 20 21 21 22 25 30 32 37 44 51 47 44 45 44 46 43 36 36 33 30
38 41 40 37 27 25 38 41 45 36 32 18 11 14 10 12 13 9 16 18 27 35 30 26 23 24 24 23 23 21 26 33 39 43 49 56 48 48 46 43 39 35 35 37 33
46 40 41 36 25 31 45 49 45 33 37 22 14 14 13 14 17 12 12 17 20 24 35 32 29 31 37 31 34 29 29 30 41 54 58 57 68 56 51 45 38 38 39 38 36
51 40 35 34 33 42 53 52 51 39 47 24 26 23 19 17 19 16 17 18 18 22 31 25 34 39 38 35 43 39 43 36 50 56 58 62 80 56 53 46 38 36 37 36 36
49 40 35 28 24 39 48 35 36 42 44 21 24 22 21 18 18 22 20 23 23 26 27 26 31 33 34 38 41 40 49 55 55 59 75 62 76 63 50 45 38 38 39 37 35
51 48 36 31 19 35 43 49 60 57 23 27 31 33 29 25 21 23 27 28 27 30 31 30 31 33 37 41 44 45 51 67 75 76 68 56 70 63 49 46 45 44 41 39 35
52 51 39 28 20 47 65 74 68 38 29 36 47 40 42 35 38 30 31 33 27 24 25 32 33 32 31 38 44 49 58 70 74 80 80 68 78 61 59 55 50 46 42 40 37
52 48 39 25 21 44 62 67 56 43 55 46 42 47 46 47 43 51 36 35 32 32 31 36 37 40 37 36 45 47 55 55 63 60 73 66 63 56 59 57 49 46 44 41 39
54 52 34 28 37 40 57 55 46 43 53 59 66 64 65 50 53 47 54 50 49 49 46 47 49 46 46 40 45 48 50 62 67 74 68 54 54 69 63 64 58 49 46 44 42
60 47 34 38 46 59 63 58 48 50 61 63 81 93 91 86 74 67 58 61 59 59 63 71 65 60 56 42 43 45 51 64 63 65 68 65 59 61 64 65 64 59 49 48 45
58 48 42 48 67 75 74 67 55 54 62 79 87 87 97 90 85 89 80 90 74 73 70 72 69 60 63 57 52 41 44 52 55 54 58 57 51 69 61 73 72 68 62 52 45
63 47 54 82 74 70 78 66 57 54 63 75 88 89 89 92 86 94 88 80 74 76 74 62 58 54 43 53 68 75 53 49 47 47 51 58 51 52 59 63 70 76 71 66 57
62 63 54 81 98 93 87 77 64 56 57 65 70 82 81 85 78 80 82 84 71 67 61 49 44 49 61 64 71 72 60 66 67 62 47 42 41 48 53 61 65 72 67 61 62
64 64 78 84 79 90 88 80 84 86 64 68 66 78 82 87 83 69 67 79 72 62 56 44 43 42 29 46 56 57 53 52 60 75 76 59 54 53 55 60 59 57 63 62 61
64 77 85 85 86 91 84 75 68 74 82 72 73 70 76 80 86 84 78 75 67 60 57 59 63 59 49 38 44 56 53 48 47 47 55 61 57 52 49 51 54 58 65 61 57
85 87 91 83 86 91 91 93 66 63 69 70 74 72 64 71 82 72 74 67 54 54 60 64 69 64 58 53 52 51 41 54 54 47 47 52 58 46 47 49 53 60 61 60 63

GFSSW_prec_cthk_096.txt.gz
RH
41 39 36 35 33 32 31 30 30 30 30 30 29 28 26 25 26 24 25 25 27 27 28 30 28 27 27 28 25 26 28 25 24 23 19 23 26 26 25 23 24 23 23 24 29
45 43 40 38 34 33 32 30 28 29 29 29 28 28 27 24 25 26 25 25 25 26 29 30 31 26 29 33 31 30 29 25 23 23 21 23 26 26 26 25 22 23 24 24 27
45 45 45 43 41 38 36 33 32 30 29 28 27 26 26 24 23 25 27 28 27 27 30 31 31 29 28 34 34 30 27 27 26 25 25 25 27 28 27 27 23 23 24 25 28
45 44 43 43 44 42 38 36 35 32 32 30 28 26 24 23 23 30 27 26 27 27 26 28 32 30 30 32 36 33 30 29 29 28 28 26 27 29 29 26 26 26 25 25 29
48 47 44 43 44 42 39 35 35 33 31 30 29 28 26 25 25 20 25 24 24 26 27 27 29 32 30 32 38 36 34 34 32 33 31 30 28 29 30 26 28 28 27 26 28
57 55 52 48 43 41 39 35 32 31 30 30 29 28 31 31 24 21 19 19 22 23 23 28 30 32 30 31 34 35 35 35 36 35 34 33 30 31 28 29 29 29 28 29 28
53 55 54 52 54 49 42 38 33 30 28 29 28 33 35 26 22 21 22 21 22 22 21 24 29 36 35 35 33 34 34 33 34 35 34 35 31 29 31 32 32 30 28 31 31
35 41 49 49 49 42 39 38 33 33 30 30 28 36 35 22 20 20 18 20 20 20 19 20 25 29 33 35 35 36 36 36 33 36 36 37 27 29 32 33 33 33 33 31 32
32 34 34 43 43 41 38 31 28 27 25 24 28 37 31 23 24 24 22 19 17 18 18 20 24 27 30 34 38 40 38 36 37 41 42 38 31 30 33 35 35 36 34 31 32
34 34 36 31 34 38 33 28 30 36 30 30 38 41 26 23 23 23 24 23 23 20 16 18 22 24 28 35 35 37 39 37 39 41 45 39 31 33 34 35 35 38 34 31 28
35 36 36 37 29 29 28 27 40 42 43 32 32 27 24 25 25 24 25 25 28 25 20 17 22 24 24 27 30 34 35 34 33 35 39 39 28 30 32 35 39 39 37 34 32
46 39 38 38 34 25 26 36 47 53 41 30 26 26 19 22 27 18 23 22 24 27 23 20 22 17 19 23 26 28 30 28 27 26 30 37 30 30 31 34 40 41 37 37 37
51 49 46 45 35 22 37 51 50 52 45 28 20 21 16 14 17 10 19 19 21 30 24 20 18 18 19 22 23 21 21 20 21 24 30 37 28 27 28 34 40 41 40 38 38
64 59 55 48 32 30 44 45 51 49 46 27 24 20 18 15 18 7 8 13 16 21 27 29 23 19 25 24 26 25 26 26 26 25 29 39 33 27 28 28 35 39 40 41 39
73 66 63 47 33 40 50 54 52 43 26 22 27 28 25 20 20 19 15 14 13 17 20 26 31 30 29 32 38 29 36 35 35 37 41 48 57 25 31 34 36 40 39 42 42
74 74 64 51 32 46 56 54 49 38 37 28 36 34 29 21 22 22 21 20 16 18 19 21 22 27 31 34 40 39 41 46 49 52 60 52 61 25 38 38 41 42 47 45 44
64 68 64 49 30 48 49 45 48 54 27 42 42 35 31 27 22 23 23 23 25 29 24 22 21 23 28 33 42 48 52 62 66 68 63 48 58 36 39 50 51 45 45 44 45
65 61 57 45 33 35 45 49 56 42 38 47 45 43 37 36 34 27 29 28 29 24 25 30 29 24 26 28 36 44 52 59 66 69 56 59 62 53 53 59 64 53 49 48 47
59 58 47 40 30 39 64 66 59 45 46 49 48 54 53 57 52 50 38 33 30 30 30 29 25 24 26 28 36 38 51 46 55 61 67 61 53 46 51 67 72 64 58 52 43
55 54 42 37 34 46 68 61 55 50 46 49 62 72 72 72 69 72 57 51 40 36 32 33 41 37 37 35 39 37 40 60 64 66 71 59 51 47 56 82 81 77 67 55 49
60 55 45 36 36 44 55 54 48 42 46 52 61 71 72 78 81 84 79 67 78 62 55 50 55 49 51 40 40 44 51 62 62 68 72 68 53 60 75 90 89 82 69 63 60
61 54 50 49 50 49 50 51 54 59 55 53 59 58 74 93 88 84 82 79 92 80 77 64 64 64 65 62 53 47 49 56 70 70 66 65 58 61 75 85 81 82 75 70 65
60 51 44 61 63 62 70 73 76 63 57 57 65 75 91 97 98 89 90 80 81 88 90 71 74 77 68 74 67 74 60 55 60 58 66 67 65 66 66 75 74 82 78 73 67
60 57 51 58 78 85 82 74 74 69 59 58 61 73 83 89 89 92 92 91 88 88 88 71 71 70 69 61 70 73 74 58 65 78 73 62 53 59 65 64 75 78 84 77 65
60 52 53 68 77 88 93 96 89 84 81 75 67 72 79 88 84 86 92 95 90 89 82 71 67 56 54 54 51 57 72 72 64 66 72 68 70 68 68 68 76 78 75 78 72
54 52 53 63 80 92 90 90 83 75 82 92 84 81 83 85 88 92 91 86 84 83 81 73 70 52 47 43 47 50 60 65 66 64 66 64 69 79 76 73 75 69 67 67 75
56 62 66 81 89 90 92 89 86 77 72 83 83 83 86 83 82 81 89 75 79 78 70 70 61 57 62 59 49 45 38 55 57 76 77 73 81 83 78 74 75 72 67 71 80

GFSSW_prec_cthk_099.txt.gz
RH
45 44 42 40 37 35 36 34 31 30 30 30 30 29 29 27 28 27 28 29 27 26 28 27 28 29 27 26 24 25 26 25 24 21 21 18 20 22 23 23 21 22 22 22 23
45 45 45 43 41 40 36 35 35 34 32 30 29 29 29 28 29 30 29 28 28 27 29 30 32 29 29 29 28 28 30 26 23 22 21 19 20 22 25 23 22 23 23 23 24
45 44 43 41 43 43 40 37 36 35 35 34 32 30 28 27 27 29 31 32 31 27 28 34 34 30 29 32 31 30 27 26 26 25 23 22 20 23 24 26 24 25 24 24 26
47 45 43 42 40 41 43 41 37 35 34 34 35 34 32 29 28 31 30 29 30 29 29 33 34 32 29 29 33 32 29 30 30 29 28 25 22 21 25 25 25 27 27 25 26
42 49 49 47 43 41 41 41 41 37 34 32 32 33 34 34 31 29 29 31 29 30 30 32 33 35 32 31 32 32 31 31 31 32 30 29 26 25 24 24 26 27 29 28 28
32 33 39 46 50 47 47 45 39 38 36 34 32 32 37 39 30 30 27 25 28 28 29 31 32 32 33 34 35 33 31 31 33 34 34 32 29 29 24 27 28 29 29 30 29
29 29 29 31 34 42 48 45 47 42 42 39 37 36 38 32 28 27 28 28 25 25 27 28 30 37 37 35 34 33 33 32 32 33 33 36 29 27 28 30 30 31 32 31 31
24 25 26 26 28 30 35 36 37 36 40 42 40 41 43 30 28 27 26 26 26 25 27 26 28 29 31 36 36 35 35 37 33 34 34 38 26 29 32 34 32 31 30 29 31
25 29 31 30 25 25 27 26 22 29 28 30 36 44 43 35 34 34 28 25 24 25 25 24 25 27 30 35 37 37 39 37 36 34 37 36 30 29 31 34 31 31 31 32 32
34 35 34 32 33 31 24 17 16 24 30 42 42 43 31 30 34 38 36 32 27 24 24 23 23 26 31 36 38 38 39 38 38 37 38 35 31 31 30 31 29 29 30 32 33
40 41 38 41 39 35 26 15 27 36 39 35 44 40 31 35 37 37 34 30 30 29 26 21 24 25 29 30 31 35 36 37 35 35 34 31 28 27 30 30 29 30 33 34 34
36 41 52 47 48 41 30 20 38 50 43 33 36 41 27 29 34 33 32 30 30 30 28 26 25 21 21 25 28 32 34 33 32 32 31 27 21 20 22 26 28 28 31 35 35
43 47 57 64 58 47 29 37 47 48 50 31 25 28 25 24 28 21 29 27 28 33 29 30 26 21 19 21 25 26 29 25 26 25 22 22 18 21 21 23 23 25 28 32 36
42 55 66 69 72 54 36 53 51 55 52 29 28 26 24 22 23 12 15 19 25 24 25 32 29 25 23 22 22 23 23 23 24 25 26 27 23 17 20 21 23 23 23 25 34
62 75 84 84 88 59 46 55 54 55 38 21 28 38 37 29 28 25 16 17 18 20 20 27 30 29 25 22 27 27 32 35 34 33 31 30 46 24 26 25 23 22 25 27 29
61 78 90 98 86 55 47 75 67 60 46 35 43 43 44 37 33 30 24 20 15 12 15 19 21 25 30 30 32 37 37 39 40 41 51 37 51 24 25 29 27 28 31 36 32
54 62 80 93 82 51 61 81 70 61 30 46 47 46 44 41 35 35 31 29 28 25 23 16 17 19 24 29 32 35 39 52 59 67 50 45 53 30 32 30 35 39 40 42 39
50 56 59 64 66 47 67 76 59 48 50 46 45 51 56 52 48 43 39 31 26 24 26 28 24 18 15 18 25 33 42 54 59 59 43 49 54 37 35 39 41 41 44 57 51
44 53 56 58 56 40 61 65 58 68 54 48 50 63 62 52 53 51 46 40 31 28 30 30 27 20 23 24 25 29 43 50 60 55 62 57 47 36 41 46 47 49 57 68 59
46 55 52 50 48 40 52 64 66 63 58 52 59 63 65 60 61 60 65 67 58 53 42 36 37 25 30 32 32 33 34 55 63 66 67 54 50 50 51 57 55 57 71 76 65
53 55 57 46 49 42 62 62 58 62 52 49 51 62 68 80 78 70 77 73 72 64 58 47 47 34 41 41 39 43 43 48 50 61 68 63 57 59 58 57 65 73 93 86 74
54 59 56 57 52 48 46 46 50 50 49 48 46 49 73 79 83 82 86 85 79 79 80 70 61 54 44 51 55 43 47 56 63 61 69 73 61 61 60 59 68 82 92 88 80
56 56 51 54 69 54 53 52 50 59 64 61 59 58 59 70 84 91 89 85 89 80 92 92 85 74 58 61 60 77 63 56 62 64 69 73 68 58 61 64 76 88 92 90 80
58 57 56 52 66 70 64 66 61 65 75 70 58 54 58 68 75 86 78 80 89 82 76 85 86 93 82 67 63 76 71 70 64 74 69 67 63 65 69 71 74 77 83 91 80
56 54 55 63 65 75 78 78 87 87 79 75 67 62 64 70 79 78 79 94 93 90 87 88 86 93 83 67 69 77 72 79 70 66 70 68 71 75 83 76 72 75 79 87 84
55 52 51 52 58 69 77 89 88 91 81 79 81 88 87 91 85 84 87 97 92 85 94 87 95 90 82 70 61 61 57 55 64 66 66 75 72 81 86 84 82 82 81 81 87
68 52 52 50 61 69 83 91 93 87 82 86 88 89 89 83 79 75 80 88 90 88 80 83 85 85 70 57 48 49 46 49 62 70 73 84 93 87 87 89 89 88 86 87 88

GFSSW_prec_cthk_102.txt.gz
RH
46 45 44 43 41 41 40 40 39 37 37 36 34 32 31 29 29 28 28 27 27 26 28 29 30 31 29 29 28 26 26 27 23 22 19 18 16 17 21 21 22 21 22 23 24
44 44 43 42 42 41 41 41 40 39 38 35 35 35 33 31 30 31 31 32 31 29 27 31 31 31 32 32 31 30 30 24 21 22 22 20 18 17 19 20 22 21 22 22 23
35 38 40 41 41 41 42 40 39 40 39 37 35 35 36 33 32 33 34 34 35 33 30 31 33 34 34 33 33 32 29 26 25 26 25 23 22 19 19 21 21 21 22 23 24
23 23 26 31 37 39 40 40 39 39 37 37 36 35 34 35 32 37 35 32 34 34 32 33 36 37 35 36 36 35 31 29 29 30 28 27 25 23 20 20 22 24 25 24 25
21 22 22 22 24 26 30 38 41 39 37 35 35 36 37 38 34 37 35 38 35 34 31 32 34 37 35 34 33 35 34 32 32 33 31 31 28 25 24 23 21 26 27 27 26
18 20 22 24 22 25 23 23 27 36 41 40 36 36 42 44 36 36 33 35 35 37 35 34 32 34 34 34 35 33 32 31 31 32 32 31 28 29 26 27 25 25 27 30 30
14 15 18 22 23 23 21 20 18 23 25 34 42 44 44 36 34 33 33 32 35 35 38 35 35 37 36 35 34 35 34 34 34 36 37 36 31 30 30 31 30 30 29 31 31
19 21 22 21 21 23 20 21 17 13 19 20 24 38 44 43 38 36 34 33 32 34 32 36 38 35 37 39 38 39 39 39 35 34 35 41 29 30 31 33 32 34 32 31 31
20 20 20 23 24 24 26 25 19 13 10 12 21 28 30 32 42 45 42 41 34 32 33 33 38 32 32 34 39 41 44 41 37 36 37 39 31 33 34 34 33 32 32 32 32
17 19 22 24 23 29 30 28 21 17 22 20 24 25 20 25 36 47 50 47 39 36 34 37 37 35 35 41 40 41 44 40 37 37 40 40 33 35 34 31 31 31 30 31 31
18 20 23 25 26 33 38 37 27 34 38 30 31 22 19 38 40 43 43 49 51 42 36 37 37 35 35 33 34 34 37 38 35 36 38 37 32 33 32 30 29 28 27 29 30
18 21 22 25 27 35 50 53 49 55 39 26 23 26 23 35 49 41 43 47 45 46 44 43 41 33 28 29 32 34 37 38 35 34 35 34 27 25 23 20 20 20 22 24 25
23 25 27 31 40 48 51 63 55 61 54 27 19 21 23 28 34 34 36 43 46 45 44 41 37 30 26 27 28 30 34 32 32 28 26 26 21 19 20 19 18 18 19 20 22
25 24 32 40 56 70 85 83 64 69 69 29 20 21 26 33 32 29 22 33 43 44 44 45 41 36 29 28 26 28 25 26 26 25 27 29 29 21 19 17 18 18 18 20 23
22 25 32 48 70 88 91 77 93 84 66 22 27 30 35 30 30 33 27 25 32 37 39 40 41 34 32 27 28 27 25 27 31 33 33 38 37 30 23 19 19 21 23 25 29
24 28 32 47 68 81 75 74 93 98 54 52 52 47 49 43 40 37 33 26 25 28 32 30 30 32 36 32 30 28 34 39 41 40 46 37 36 31 27 25 26 27 30 34 34
23 27 36 49 67 79 83 81 97 93 41 71 65 64 60 60 52 49 40 36 27 25 23 19 19 19 22 29 32 32 38 48 58 61 46 38 41 24 29 30 35 37 35 37 39
28 29 36 46 55 62 69 93 97 86 62 65 68 76 77 71 64 63 54 51 44 36 38 34 26 16 13 18 27 32 36 45 52 53 44 46 49 36 32 38 37 38 43 44 39
31 31 40 44 50 48 68 93 96 89 67 66 76 80 86 80 72 67 66 71 67 56 40 36 29 24 27 27 24 26 35 37 44 43 51 44 38 32 36 36 37 41 41 43 46
36 34 45 49 49 47 45 72 81 83 73 63 69 70 78 86 80 76 78 78 73 67 63 44 40 31 34 33 33 31 30 40 50 58 55 45 44 43 39 42 43 44 46 48 54
40 41 47 50 50 44 48 53 61 68 70 64 57 55 70 76 81 82 88 83 75 70 66 58 47 39 31 36 42 42 40 40 41 48 52 47 42 41 46 48 52 54 53 54 62
46 47 50 60 64 52 47 46 59 58 48 57 51 56 61 66 70 79 79 76 77 74 77 70 67 58 43 39 46 44 45 44 51 48 55 54 41 46 48 50 53 58 57 65 81
51 49 50 54 63 65 54 58 57 55 55 56 57 60 56 59 62 69 78 75 77 78 79 79 76 76 57 49 48 54 53 49 50 50 49 63 53 57 60 59 60 68 67 69 86
52 51 50 59 55 68 67 71 69 63 76 72 63 56 52 55 56 57 67 71 77 79 75 76 79 77 74 81 73 65 55 56 57 65 62 63 62 61 64 65 69 82 74 83 90
54 51 53 62 66 63 71 76 78 81 79 73 74 73 71 63 57 60 66 70 74 73 76 82 85 79 72 76 72 77 77 61 65 64 67 63 63 68 71 75 81 84 82 91 95
72 57 51 51 54 59 69 76 87 88 91 88 81 78 76 77 73 70 73 73 75 86 86 90 91 81 73 73 81 77 79 75 77 70 81 73 68 74 76 79 88 87 88 93 96
85 74 60 47 50 58 66 69 87 84 80 87 75 78 77 82 82 79 79 73 76 91 95 96 92 93 78 78 76 77 66 62 71 71 65 62 66 73 85 90 88 88 90 90 90

GFSSW_prec_cthk_105.txt.gz
RH
40 40 38 38 39 39 39 39 37 37 38 37 37 36 36 34 32 31 32 32 32 27 26 29 31 31 31 31 29 29 26 23 20 21 20 19 18 16 15 18 21 22 22 22 24
27 27 28 30 33 35 36 37 37 37 37 37 35 36 37 36 36 36 34 35 36 33 30 29 33 36 35 33 32 31 28 24 23 24 23 22 20 19 17 19 20 22 22 23 24
19 18 19 19 19 22 23 26 31 34 36 37 36 34 33 35 36 38 41 42 40 38 34 33 31 33 37 36 35 32 27 27 26 27 26 24 22 21 20 19 20 22 22 24 25
17 17 18 18 18 18 17 17 18 21 25 31 34 34 33 33 32 38 43 42 42 40 37 35 36 37 37 38 37 36 33 32 30 31 29 27 26 24 23 21 21 22 23 25 25
12 14 15 15 15 16 17 17 17 16 17 20 24 29 32 36 34 35 38 39 40 42 39 38 38 38 37 37 40 40 36 35 34 33 31 31 29 28 26 26 24 22 24 26 26
14 14 15 15 15 15 15 16 17 15 14 15 19 22 29 34 35 34 33 39 41 40 43 42 39 39 39 37 36 34 35 33 33 33 32 31 28 29 28 29 29 27 25 26 28
15 15 14 13 13 14 15 17 15 14 11 14 14 21 24 20 26 36 32 32 37 41 43 48 45 41 39 38 36 35 35 35 33 34 34 35 31 30 31 32 31 32 32 30 28
13 13 14 14 14 14 15 14 14 13 13 12 14 20 21 11 13 23 42 36 31 36 41 42 52 49 47 44 40 39 39 37 35 36 35 36 28 33 33 34 34 36 38 36 33
11 11 11 12 13 14 15 14 15 14 13 12 19 19 15 7 6 17 29 43 42 36 40 41 45 53 47 47 47 44 40 43 39 38 38 37 29 31 33 35 37 37 37 37 35
12 11 12 13 14 15 15 15 16 19 28 32 32 29 9 7 11 16 28 40 53 45 46 47 46 49 50 47 39 41 45 42 40 40 41 38 34 34 34 34 37 39 38 36 34
12 15 16 16 17 18 19 19 23 29 36 52 50 36 19 20 24 25 23 35 46 49 46 53 53 49 49 45 43 41 40 39 41 41 39 36 34 34 33 33 32 32 33 32 31
15 17 17 17 18 19 24 32 45 57 52 36 41 41 29 22 24 22 29 36 41 49 51 50 51 52 48 44 44 44 43 43 43 41 38 33 29 27 26 23 24 23 23 23 24
16 18 18 17 17 21 32 45 60 69 75 38 38 38 24 18 21 18 31 43 42 46 43 55 53 45 44 44 45 43 42 40 38 35 31 28 22 19 21 22 22 21 20 21 21
18 20 20 18 19 24 38 53 61 76 85 63 51 38 30 25 25 17 21 43 48 48 54 50 46 55 56 49 47 45 39 34 33 34 31 25 21 22 22 22 22 22 22 22 25
20 21 21 20 24 32 41 47 63 81 89 72 75 60 48 30 21 26 26 32 36 40 50 56 57 52 49 47 47 43 38 37 35 29 26 26 30 27 27 25 24 25 26 28 29
20 23 21 22 27 34 42 49 62 90 89 81 91 73 65 45 37 36 39 35 31 36 42 49 51 54 50 46 43 38 42 44 42 39 43 34 32 29 28 27 29 32 31 29 28
25 25 24 24 29 35 41 54 70 91 69 86 94 94 78 68 53 48 45 36 33 40 40 37 43 45 48 45 45 45 46 51 61 55 44 36 35 28 32 34 35 32 29 30 29
28 27 26 29 34 34 44 66 81 97 79 76 91 97 96 84 72 70 52 48 49 40 32 32 26 30 32 32 32 34 38 38 44 52 39 41 38 33 35 39 37 35 32 29 28
32 29 27 31 35 34 33 68 81 94 86 65 73 90 91 94 89 81 82 82 74 63 45 43 38 26 29 23 24 36 39 34 36 40 42 37 39 34 41 39 40 38 35 31 28
35 29 30 33 37 36 35 50 78 80 69 63 70 77 91 88 91 96 93 94 88 76 67 51 49 49 49 42 33 30 36 43 45 46 44 36 37 34 39 38 40 37 35 35 34
39 31 34 37 44 36 40 42 50 55 48 59 61 67 78 82 90 97 94 91 91 88 78 72 57 55 50 51 46 40 37 37 36 39 38 39 34 35 38 40 39 36 38 40 40
42 35 34 35 44 50 53 47 55 52 46 51 58 64 60 58 71 85 88 84 88 88 94 86 74 63 54 48 53 48 48 44 42 45 43 39 35 43 42 40 43 44 46 45 50
48 37 39 40 47 56 52 64 60 53 55 66 63 58 51 52 55 62 66 76 80 83 88 86 84 71 61 63 53 53 52 47 47 46 42 46 40 50 46 49 50 50 49 54 57
59 43 39 47 51 54 59 64 65 63 74 73 74 65 60 51 53 52 59 67 72 76 80 76 78 77 66 64 63 58 52 50 50 51 45 40 42 52 55 55 55 56 56 60 63
72 58 44 45 57 49 56 66 74 76 78 77 78 78 76 73 63 60 58 60 63 73 80 75 78 73 64 69 64 59 56 53 50 46 47 45 51 53 61 66 68 69 71 73 74
78 73 60 45 43 46 51 64 77 74 77 88 81 76 79 79 81 76 66 67 73 79 78 83 83 76 66 60 61 52 58 61 64 64 58 55 60 69 72 68 74 79 81 80 80
80 80 75 61 49 44 48 61 68 68 74 81 81 76 76 73 69 75 78 76 76 75 89 97 86 73 68 66 55 47 54 60 66 68 67 68 73 65 61 67 78 86 85 87 90

GFSSW_prec_cthk_108.txt.gz
RH
25 23 22 20 20 19 20 23 24 27 29 31 32 30 30 31 32 33 34 33 35 33 31 31 31 34 36 34 33 32 27 23 21 20 20 20 20 19 17 17 16 18 20 22 22
19 17 18 19 17 16 16 16 16 16 16 18 23 28 29 30 30 31 35 36 37 37 36 36 35 35 37 38 35 32 27 25 25 24 24 22 23 21 19 17 19 20 22 24 24
17 16 16 16 15 15 15 15 14 14 14 13 13 14 18 24 28 30 36 40 42 41 42 40 37 37 37 38 38 34 28 29 28 27 27 26 23 23 21 19 19 21 22 23 25
13 13 13 13 13 13 14 13 13 13 13 13 13 13 11 12 16 26 35 38 40 42 45 44 43 43 38 40 40 38 34 34 32 30 29 28 26 24 24 23 22 22 22 22 24
15 14 14 13 13 12 12 11 11 10 10 11 11 13 16 16 15 16 21 28 33 39 43 46 45 44 39 38 40 41 41 37 36 34 32 30 29 28 27 26 27 23 23 23 24
13 13 13 12 11 10 10 10 9 8 8 10 11 12 20 21 10 10 14 22 32 39 40 43 46 46 44 40 39 40 41 42 40 40 37 34 31 31 30 29 30 29 27 25 25
11 10 10 11 11 11 10 10 9 8 8 9 10 18 21 14 8 8 11 16 22 30 40 44 46 48 45 45 41 40 39 38 38 39 38 36 31 30 30 31 31 31 30 29 27
10 11 11 11 11 11 11 10 9 8 8 8 9 19 24 14 11 4 4 9 16 24 31 40 47 50 52 48 45 42 40 38 37 38 37 37 28 33 32 32 33 33 34 35 34
11 11 10 11 12 12 11 10 9 10 12 14 22 27 18 18 14 7 7 7 8 17 29 34 40 49 58 56 49 45 40 40 42 43 41 37 33 34 34 34 35 36 35 35 36
11 11 13 13 13 12 12 10 12 16 25 29 36 42 26 21 24 30 29 21 16 16 28 36 41 42 51 54 46 48 50 47 49 46 42 39 37 39 36 36 36 37 37 36 36
13 14 15 14 12 13 16 20 20 25 22 21 18 34 22 26 32 30 32 29 29 20 16 31 41 41 37 52 52 52 48 44 43 46 45 40 39 39 40 38 36 34 35 35 35
15 16 16 15 13 18 21 23 26 32 31 14 32 42 39 30 37 31 42 39 34 27 22 28 27 37 49 51 56 56 59 48 43 49 49 40 35 37 38 35 31 29 27 26 28
17 17 16 13 13 23 23 23 25 30 32 25 49 51 53 44 43 45 48 45 34 28 22 28 31 41 50 56 57 57 56 58 51 50 51 44 35 31 28 26 23 22 21 21 22
16 16 15 13 23 22 27 25 29 36 50 50 77 86 88 55 48 37 48 56 51 38 31 33 40 40 49 55 60 59 54 48 50 60 47 40 33 28 27 26 24 23 23 24 28
15 17 16 17 20 24 23 27 34 51 58 63 88 98 96 70 45 27 36 51 49 46 42 39 35 46 54 60 56 53 50 52 50 46 42 38 35 27 28 25 25 26 27 31 30
16 18 18 23 22 22 22 31 47 71 75 73 84 92 98 61 49 46 27 29 42 56 56 55 53 47 46 52 59 56 56 52 50 49 47 37 31 27 29 29 29 32 33 33 33
20 19 21 23 27 21 21 43 62 61 58 70 74 92 96 90 59 52 42 35 34 52 52 50 53 58 61 57 59 51 52 62 66 60 47 46 40 30 35 32 34 36 36 34 32
21 21 24 25 22 20 22 49 57 54 62 62 65 83 98 95 90 60 49 51 44 41 40 46 45 46 55 55 48 48 50 51 61 57 49 51 42 35 33 37 36 32 30 30 32
23 26 30 26 23 21 28 36 47 58 55 51 53 74 90 88 98 86 80 75 60 52 44 40 41 35 36 43 50 53 55 46 54 50 51 47 47 45 38 37 35 34 34 33 32
26 29 34 29 25 23 30 31 37 46 54 50 55 70 91 89 94 97 90 85 76 66 64 50 49 36 32 26 37 43 35 45 44 49 45 32 38 36 41 40 39 36 38 36 33
32 35 34 28 30 35 33 27 28 36 49 48 48 61 67 75 86 97 96 97 89 81 63 59 55 58 55 45 29 34 43 41 41 40 37 33 42 40 40 40 39 38 40 40 40
34 42 39 29 40 41 42 41 38 40 46 56 53 51 54 53 63 80 87 92 93 94 86 75 72 65 64 65 53 45 40 43 47 47 43 36 41 49 41 40 39 41 44 45 47
40 42 42 34 39 40 44 46 45 45 49 56 62 57 53 50 53 50 61 80 85 92 97 93 80 67 66 70 66 62 52 42 42 44 48 53 59 58 45 44 45 46 50 52 55
42 50 50 45 37 42 46 50 49 54 59 60 63 59 58 55 54 50 47 50 61 78 85 83 82 83 71 70 71 65 59 57 54 53 45 44 49 55 50 51 54 54 56 56 57
46 56 55 44 40 37 43 48 51 52 58 67 68 64 65 66 63 62 54 49 57 70 76 77 71 68 64 68 65 58 55 50 48 47 49 49 43 48 51 58 59 59 56 58 60
50 59 69 53 33 35 39 46 50 55 59 70 80 73 69 70 71 65 64 62 63 79 75 76 66 58 51 48 55 57 50 48 46 44 44 43 46 53 59 62 65 62 60 65 67
53 57 71 63 55 44 40 43 51 54 60 70 75 72 70 68 60 57 62 63 68 77 89 82 81 67 60 53 52 50 45 44 50 58 60 62 67 65 66 67 62 61 67 75 74

GFSSW_prec_cthk_111.txt.gz
RH
21 19 17 15 14 14 13 13 13 12 12 12 12 12 13 18 23 27 30 32 36 36 34 33 35 35 34 34 33 34 32 28 27 26 23 23 20 19 20 17 19 20 18 25 25
17 17 18 16 14 13 13 12 12 11 10 10 10 9 9 9 10 17 23 31 32 34 38 37 38 38 36 36 35 33 32 30 30 31 29 24 23 21 21 21 22 21 21 20 21
16 15 14 14 15 15 15 13 12 11 11 10 10 9 8 7 11 13 13 19 30 35 38 41 41 40 37 38 36 34 29 31 31 31 33 28 28 24 25 23 21 25 22 21 23
19 18 17 15 14 12 11 11 9 9 9 9 10 11 8 13 8 12 10 16 20 27 38 42 44 41 39 39 40 38 34 34 32 34 33 30 29 29 26 26 25 23 24 24 22
17 16 15 13 12 11 10 9 9 9 9 8 8 9 13 16 14 9 10 7 9 14 26 38 42 46 40 42 43 38 38 37 36 36 36 34 32 30 29 28 27 26 24 24 23
16 15 13 11 10 9 10 10 10 9 8 8 8 8 15 17 9 9 9 9 8 10 15 27 38 44 44 45 44 43 44 40 39 38 37 36 34 33 31 32 30 29 27 25 23
16 14 12 11 11 12 11 9 9 8 8 8 7 9 16 12 10 10 10 8 10 12 14 21 29 40 42 44 44 44 41 41 37 38 39 39 36 32 34 34 34 32 30 28 27
14 12 12 12 12 11 10 9 8 8 7 7 8 14 20 14 18 16 12 10 11 11 12 21 28 32 41 47 46 47 46 41 36 40 38 41 34 34 36 35 34 31 32 31 29
13 12 12 13 12 10 9 8 7 8 9 12 21 31 22 17 21 27 18 15 13 12 12 13 18 27 38 45 53 49 41 42 42 42 40 39 35 34 38 39 37 36 33 33 33
13 13 13 13 11 9 9 9 12 14 26 20 32 30 25 23 25 29 27 37 28 19 18 14 16 22 28 38 40 36 52 49 45 44 44 41 39 40 39 39 37 36 38 37 36
14 13 13 12 11 10 11 19 18 19 26 16 17 22 20 31 29 27 30 46 56 29 22 16 15 18 15 26 34 51 54 52 51 48 54 49 45 42 41 43 41 37 39 37 38
13 14 15 13 12 14 24 28 31 31 27 24 28 35 54 64 57 44 38 63 69 53 36 27 17 10 18 28 36 53 56 57 51 55 54 51 49 44 42 41 42 41 39 36 36
15 16 15 14 14 26 27 29 32 32 30 22 36 52 60 64 68 43 50 80 81 81 55 32 11 12 23 27 34 46 52 53 53 54 53 50 48 43 37 37 39 39 35 31 30
15 16 16 15 28 23 30 26 30 35 37 45 52 62 67 77 57 44 49 78 86 94 63 35 18 23 21 26 33 42 52 59 62 65 62 61 55 46 42 35 33 32 28 27 26
17 17 17 16 20 26 23 26 31 38 46 44 46 54 70 78 45 69 48 61 75 86 78 51 45 35 31 27 38 43 58 64 64 63 59 54 57 45 38 32 37 35 31 32 34
19 19 18 29 33 28 22 22 33 58 65 44 43 51 62 92 51 71 56 52 52 61 77 52 49 48 41 44 50 57 58 58 57 58 58 46 45 41 39 40 34 34 38 44 45
19 21 20 23 29 20 18 30 46 64 42 40 42 51 64 81 89 49 39 40 57 65 78 70 75 50 53 54 57 60 67 74 73 66 51 46 45 36 36 39 44 49 51 46 45
21 21 26 29 23 21 24 35 50 47 48 37 38 50 77 90 77 80 41 24 25 35 54 54 65 68 58 53 52 59 59 71 72 67 53 46 49 41 38 44 50 53 56 51 45
25 33 39 25 24 21 28 46 48 44 36 38 32 48 65 72 93 96 80 84 60 55 68 53 54 54 62 60 58 57 55 54 59 62 67 57 49 54 46 52 53 46 43 43 42
31 36 33 22 25 28 32 29 28 33 31 35 39 46 60 65 81 97 93 88 88 74 77 67 54 48 50 58 56 55 53 57 58 57 52 42 49 50 49 49 44 38 41 44 46
34 39 33 21 29 38 39 33 31 38 36 41 44 55 56 61 71 94 96 86 81 77 66 72 65 50 43 39 36 46 54 52 49 46 47 47 46 52 56 53 54 52 61 52 50
36 44 29 25 45 36 43 36 34 42 42 49 57 49 52 56 58 76 80 85 92 91 83 82 78 65 50 49 40 31 37 47 44 47 45 53 75 59 62 57 51 56 55 57 57
37 34 32 34 44 36 39 40 40 43 45 49 58 54 52 60 67 53 62 69 77 92 94 86 76 91 90 63 45 37 32 45 48 49 62 53 45 60 53 52 51 55 63 71 66
39 44 43 44 35 33 40 41 44 42 47 52 57 59 58 54 59 70 56 53 63 81 86 87 82 90 89 91 68 66 52 45 50 54 49 51 76 74 70 62 64 63 66 58 55
42 42 37 54 43 34 34 38 42 44 38 49 58 63 54 58 53 61 53 54 52 68 78 84 86 79 81 80 75 80 73 62 59 59 62 64 64 78 87 79 58 65 59 57 55
37 47 45 54 40 32 39 40 42 46 41 46 57 55 50 51 56 50 50 51 58 62 61 63 73 63 59 55 62 65 58 58 58 54 54 48 53 66 56 49 54 58 56 56 56
47 44 47 56 57 49 45 40 42 43 47 52 56 57 56 54 47 44 47 51 48 62 74 68 66 61 58 50 49 48 51 50 53 53 54 58 73 80 77 70 68 63 66 62 61

GFSSW_prec_cthk_114.txt.gz
RH
24 22 20 17 16 15 14 13 12 12 11 10 10 10 9 9 9 9 13 15 23 29 32 33 31 35 36 38 38 38 36 29 26 24 21 23 24 26 23 19 18 20 22 25 30
21 18 17 16 15 14 13 12 11 11 10 10 10 9 8 7 7 7 10 11 12 16 26 31 33 35 36 37 41 41 36 29 31 28 25 24 24 30 27 21 20 20 23 23 24
20 17 16 17 16 14 12 12 12 11 10 10 9 8 8 7 11 17 10 9 10 14 16 24 33 36 34 37 39 41 30 34 31 33 31 29 27 31 28 27 23 23 23 23 25
20 19 19 18 17 15 14 13 12 12 11 10 10 10 9 12 10 11 9 8 9 9 12 22 27 35 35 35 40 42 34 39 36 36 36 32 32 28 30 28 30 26 25 24 25
22 20 19 18 16 14 13 13 12 11 10 9 8 8 9 14 12 10 12 9 8 8 9 13 20 28 28 37 42 37 38 41 41 40 37 36 32 32 28 28 30 29 27 28 27
22 21 19 18 16 15 13 12 11 10 9 8 8 9 15 17 9 11 10 12 13 11 9 9 10 19 25 30 37 37 42 41 44 41 41 39 36 34 28 30 29 28 25 24 26
23 21 20 19 17 15 14 12 10 10 9 8 9 9 16 12 13 19 16 12 12 14 11 10 9 13 18 25 30 37 44 44 40 36 42 45 40 30 34 34 31 29 27 27 28
20 20 20 18 16 14 13 11 11 10 10 10 10 14 23 17 21 19 23 24 16 15 14 14 14 12 16 21 27 34 42 39 28 40 44 50 34 34 38 38 34 32 29 30 30
21 21 19 17 15 14 12 11 12 13 14 13 16 29 24 20 19 16 15 20 24 20 17 18 17 22 25 20 26 34 28 28 36 46 45 49 31 39 41 39 38 37 34 30 30
20 20 19 16 15 13 13 14 15 16 19 16 22 23 22 19 17 26 25 25 25 25 33 27 24 24 27 26 27 21 28 36 35 43 48 48 35 39 40 40 38 43 39 36 33
25 20 16 15 15 17 18 18 18 20 20 16 14 18 21 25 28 28 37 42 40 33 32 42 40 29 21 24 19 22 32 35 34 40 49 50 43 43 44 42 39 41 45 44 41
17 16 16 16 16 18 22 25 25 24 25 20 26 30 34 38 34 30 42 46 51 45 38 61 62 31 20 18 27 26 33 41 44 46 56 56 58 47 47 44 41 43 44 43 42
16 16 16 15 19 23 29 26 24 28 28 35 38 36 33 36 37 40 43 54 53 56 49 76 65 37 31 25 30 25 34 40 38 56 72 61 64 52 50 47 47 46 45 46 46
16 16 16 15 27 25 33 23 25 30 41 40 42 37 30 39 40 50 44 45 62 67 90 92 70 51 45 31 29 30 29 35 51 61 82 62 60 51 44 46 44 43 43 46 48
16 17 16 21 21 30 25 24 26 35 39 37 36 26 33 51 53 48 52 54 76 84 87 94 89 63 49 24 25 32 39 46 55 66 67 67 60 40 49 50 46 45 40 41 43
18 19 18 31 32 30 23 23 32 54 58 39 35 25 37 50 64 61 63 61 60 80 84 88 70 67 41 35 30 38 49 58 62 61 70 51 62 45 48 46 49 43 40 39 39
22 20 20 25 35 25 17 34 51 53 35 35 23 30 45 53 61 68 66 62 47 69 80 71 66 62 45 47 37 49 57 71 79 70 52 53 62 44 44 43 45 39 38 49 51
22 20 29 31 24 22 29 44 58 44 32 21 24 38 48 49 64 64 54 59 46 51 55 55 91 64 47 48 45 57 53 58 62 61 50 51 53 41 44 40 42 47 52 61 62
28 32 38 34 20 24 39 52 37 26 23 27 34 45 46 51 74 84 98 72 76 74 82 84 69 69 61 54 55 59 57 60 68 70 71 53 49 49 43 50 54 58 61 65 63
31 38 40 20 19 35 42 33 25 24 25 35 43 52 50 52 65 86 90 78 77 64 52 79 85 61 73 58 55 59 58 68 66 70 75 85 54 64 47 55 62 73 63 64 68
34 43 44 21 34 48 46 35 33 26 31 39 48 50 53 51 63 70 82 77 65 66 58 65 80 61 50 66 68 66 60 60 58 58 59 68 79 61 58 56 69 62 64 68 71
40 46 36 18 52 45 44 29 30 36 38 43 46 50 51 54 69 60 60 67 69 76 66 67 76 83 57 46 45 53 52 55 64 57 51 56 65 63 66 61 62 70 69 67 85
41 37 33 35 57 44 37 36 37 37 42 41 50 48 52 52 61 77 52 54 62 76 83 74 86 85 69 55 44 36 39 47 55 52 58 62 52 59 76 75 81 62 64 67 67
41 44 43 42 36 32 39 38 37 47 39 40 49 60 56 52 57 76 54 47 45 66 78 83 85 97 98 98 84 57 37 38 47 58 56 64 67 71 86 85 82 71 59 49 52
44 44 35 52 51 36 33 33 36 42 46 46 52 60 57 59 56 58 50 42 40 63 59 75 86 86 79 75 91 89 68 55 42 48 53 80 78 79 84 82 90 79 67 56 53
37 46 41 45 44 35 40 36 36 38 44 47 58 58 58 62 62 53 51 50 43 41 46 61 74 71 65 61 69 86 81 76 66 58 65 65 69 87 94 91 88 75 53 53 49
51 40 42 47 48 51 49 38 37 36 39 47 49 47 49 54 50 44 46 58 60 48 54 59 69 61 64 58 55 53 62 62 57 56 64 70 87 94 92 81 78 71 61 56 60

GFSSW_prec_cthk_117.txt.gz
RH
30 27 23 21 18 17 16 15 14 13 12 11 11 10 10 10 9 9 8 9 10 12 12 20 27 31 32 34 41 44 42 32 32 29 22 18 19 25 24 22 21 22 25 22 27
31 27 24 21 18 16 15 14 14 13 12 12 11 10 10 9 9 11 12 10 10 10 11 13 15 25 29 34 38 45 39 31 32 30 27 24 21 25 27 26 25 22 24 31 29
31 27 24 21 19 17 16 15 15 14 13 12 11 11 10 10 11 17 13 10 9 9 10 11 16 16 22 30 35 40 30 39 35 35 33 29 27 24 28 28 29 27 24 24 29
32 28 25 22 20 19 18 17 16 15 14 13 12 11 11 11 11 12 11 11 11 10 11 13 17 16 19 23 30 35 30 38 37 40 37 32 31 28 30 29 32 28 25 25 23
34 29 26 24 22 21 19 19 17 16 15 13 12 11 10 13 10 10 13 12 10 11 11 10 12 17 20 16 24 25 30 36 36 41 37 37 33 32 28 32 33 29 26 24 25
33 30 27 24 23 22 21 20 18 16 15 14 12 11 12 15 10 10 10 12 11 11 11 12 12 10 12 15 21 21 24 28 36 31 35 43 36 39 27 34 33 31 29 27 26
34 29 27 27 24 22 20 19 17 16 14 14 13 12 14 10 14 14 14 14 15 16 12 12 14 14 12 11 12 18 25 27 25 23 33 46 45 34 33 36 33 32 31 30 29
35 31 27 25 23 21 20 19 18 16 15 16 15 16 18 19 16 16 14 13 13 15 16 18 15 15 18 15 11 18 25 24 14 24 33 53 42 27 40 40 34 32 33 31 30
28 27 24 24 23 22 20 19 18 18 16 18 19 23 23 18 17 14 19 24 25 22 19 16 24 21 20 21 21 13 21 18 17 25 33 49 36 33 42 43 39 35 34 35 34
27 26 24 22 22 23 22 19 19 19 18 20 23 26 18 15 16 16 19 23 25 25 25 22 25 28 24 26 32 18 19 23 25 21 33 45 38 39 41 44 40 40 37 35 35
27 25 22 23 24 22 23 20 20 25 19 18 16 21 16 15 15 17 24 25 32 30 32 33 38 37 30 26 28 32 39 25 22 23 34 35 40 41 45 46 41 40 39 38 38
26 27 25 24 24 27 30 28 28 26 22 21 24 26 22 19 22 22 33 37 36 35 40 49 55 38 40 40 43 39 41 42 27 27 44 47 55 40 48 47 40 42 41 41 42
26 28 26 20 25 30 33 29 27 22 27 31 30 30 26 22 22 30 40 37 36 36 48 54 66 62 53 49 62 45 45 45 38 42 63 68 60 51 44 50 45 40 40 44 45
25 29 20 20 31 35 31 27 22 23 41 36 32 29 24 22 30 34 47 49 43 45 56 66 70 85 69 58 75 51 47 45 40 48 75 70 70 59 54 55 48 44 44 45 49
31 22 29 26 26 37 28 20 25 32 45 32 29 25 21 30 34 35 47 50 54 43 61 57 72 97 94 70 71 50 38 35 40 56 77 82 83 51 47 56 44 41 42 45 46
38 32 28 30 41 33 23 28 34 50 51 30 24 19 20 30 42 41 52 54 50 48 58 62 67 82 85 68 67 40 39 46 55 72 96 68 70 48 49 46 47 45 45 47 49
25 25 25 30 35 26 21 35 48 57 29 23 15 24 34 37 43 52 52 51 63 63 60 51 58 67 70 65 61 48 45 76 91 94 77 56 64 36 33 36 45 46 46 51 54
32 28 31 29 23 20 34 44 60 36 25 15 24 28 41 41 43 51 61 54 64 74 77 78 87 81 62 78 48 49 57 79 93 76 62 53 49 30 33 39 42 47 53 54 53
33 37 34 23 21 30 38 54 34 21 19 25 30 37 42 41 49 56 72 68 60 67 88 79 74 72 71 81 70 49 60 61 70 67 66 44 34 39 42 50 52 51 54 61 64
35 35 37 31 24 34 38 38 26 21 24 33 36 37 45 46 49 63 64 64 60 67 72 74 81 75 71 71 56 43 44 62 67 81 86 81 58 59 61 57 75 73 72 79 77
35 43 45 36 34 42 46 41 27 22 30 37 36 40 44 47 49 64 60 59 57 61 65 65 77 70 81 80 68 61 59 58 87 75 80 96 87 75 69 63 82 80 80 93 85
37 50 41 18 44 47 49 30 29 29 39 37 42 37 44 45 48 56 62 59 56 67 70 70 75 75 68 72 66 63 67 65 77 77 66 74 93 88 83 88 77 83 86 94 90
47 46 36 33 57 55 42 35 33 37 30 38 40 44 49 46 50 52 57 46 43 57 79 76 75 78 72 63 71 79 66 61 63 68 64 73 88 86 90 90 92 87 90 89 83
44 50 46 39 37 44 39 40 38 41 40 35 43 46 45 45 47 51 48 40 36 39 58 61 78 95 94 93 94 80 67 62 56 67 63 74 88 95 88 96 96 91 89 84 79
44 54 43 52 49 42 30 33 36 42 49 43 45 49 48 48 49 55 40 30 34 39 47 52 68 82 80 82 97 94 75 68 60 57 60 74 85 95 98 98 96 92 84 77 66
42 55 45 44 38 39 37 41 40 40 43 42 47 46 42 48 55 55 43 42 46 50 44 47 61 68 79 79 79 82 76 67 64 64 76 81 94 96 97 95 96 87 83 71 56
50 48 47 46 45 48 53 42 41 44 45 46 42 41 47 54 51 38 38 62 63 62 70 60 62 62 71 66 76 96 91 79 86 86 75 84 95 96 97 93 89 87 80 67 57

GFSSW_prec_cthk_120.txt.gz
RH
40 36 34 31 27 24 21 19 18 17 16 15 14 13 13 11 10 10 11 12 11 11 11 12 13 21 27 28 32 37 39 35 35 32 26 25 19 19 22 21 21 23 22 22 26
40 37 32 31 29 25 22 19 18 17 16 15 14 13 12 11 11 13 13 12 11 11 11 12 12 13 16 23 29 33 36 36 34 33 30 29 27 22 24 24 23 23 23 25 27
41 38 34 32 30 26 23 22 20 18 17 16 15 14 13 12 13 18 16 13 13 12 12 13 15 19 14 14 20 27 26 33 34 34 34 32 29 29 27 26 28 27 27 28 29
42 40 37 33 30 27 25 23 22 20 19 17 16 14 13 13 14 17 16 14 13 13 12 13 15 20 18 15 14 17 19 25 29 32 33 32 33 30 30 25 32 31 30 30 30
42 42 38 35 33 29 25 24 22 22 20 19 18 16 16 16 12 13 12 13 13 13 12 12 12 14 16 18 18 17 16 15 20 22 26 34 31 35 30 30 32 35 34 38 35
45 42 39 37 34 31 28 26 24 22 21 21 20 19 19 20 14 14 16 14 13 13 14 13 14 13 15 12 13 14 15 15 16 14 19 28 29 42 23 36 35 35 36 34 37
46 44 39 37 33 31 29 28 26 24 24 22 22 20 19 16 17 16 13 14 16 16 13 14 15 17 16 16 12 12 15 12 13 14 16 26 30 29 24 37 37 38 38 37 34
48 41 38 36 35 34 27 26 25 24 24 24 24 24 20 19 17 15 15 15 16 18 21 19 15 14 16 17 17 17 17 16 7 12 15 27 26 17 28 38 38 38 39 40 37
46 43 37 35 31 27 27 26 24 25 26 26 25 24 21 20 18 16 18 19 19 19 21 21 22 19 18 26 26 19 24 19 13 11 17 24 25 14 25 38 40 39 38 40 39
42 38 32 28 27 28 29 28 28 27 27 25 26 25 21 20 18 17 20 21 20 22 25 25 25 26 25 31 37 20 24 20 19 10 18 24 28 17 26 34 35 41 41 41 41
41 37 34 29 29 31 30 31 26 24 23 20 23 25 23 22 19 18 21 21 21 24 28 29 32 32 29 32 36 37 36 38 23 16 22 23 32 21 29 34 34 36 41 43 42
37 34 31 29 34 40 39 32 29 27 26 26 29 28 23 21 19 20 21 25 27 29 27 32 38 37 44 49 52 51 53 52 37 25 26 30 34 26 29 33 35 34 35 38 42
32 31 29 33 39 42 34 30 31 28 29 30 28 25 21 21 18 24 25 27 32 30 36 42 31 38 50 58 76 70 53 50 57 33 39 59 47 35 33 34 35 39 36 38 41
32 31 34 29 39 39 33 36 29 29 41 34 28 27 21 20 23 21 31 35 36 39 39 36 33 45 53 57 82 88 72 54 57 49 66 67 78 47 38 39 41 41 35 38 41
31 34 31 35 39 40 39 34 35 35 42 32 27 19 21 21 22 27 38 39 42 43 48 45 51 67 71 74 82 76 87 54 58 47 67 65 85 60 56 48 48 41 38 39 42
33 28 37 44 47 38 40 34 37 45 41 28 22 19 20 21 26 33 41 44 47 50 49 53 55 65 67 68 71 76 77 74 67 66 74 63 84 56 58 49 49 44 47 49 53
32 40 51 36 37 46 28 38 46 44 27 24 16 21 24 27 30 42 51 52 62 64 59 54 51 72 85 78 62 73 76 85 82 83 83 66 90 52 47 45 50 54 56 54 57
47 39 26 40 39 29 34 41 42 31 24 15 22 25 26 27 36 50 58 63 57 59 59 65 58 64 71 94 91 69 63 54 66 72 69 65 70 41 40 45 46 53 65 63 70
45 32 41 37 31 31 37 46 32 20 18 21 23 26 26 32 44 53 65 64 57 55 69 68 58 55 66 77 78 50 48 43 67 82 67 58 46 45 43 43 45 54 63 70 72
41 43 42 34 31 36 38 35 25 20 20 25 28 30 34 36 47 59 61 57 55 55 68 66 70 57 69 70 62 59 45 66 79 91 81 78 62 76 73 64 58 60 60 65 69
45 52 42 34 37 39 43 39 27 22 25 26 28 34 34 41 43 60 59 56 50 46 54 69 76 64 75 95 83 70 65 70 79 86 90 93 95 82 83 82 74 80 82 76 77
44 53 42 31 45 44 46 33 24 26 26 27 29 34 42 45 40 45 51 54 47 41 47 69 83 84 75 78 78 78 83 77 80 95 94 91 96 96 92 91 88 91 91 89 86
55 49 35 35 54 54 45 34 28 29 27 29 32 40 44 46 41 39 40 38 38 31 38 54 74 86 71 67 65 89 90 88 92 90 89 85 98 97 96 94 93 96 97 91 88
48 52 47 49 49 45 41 35 34 36 35 34 43 53 49 44 40 40 41 33 32 38 40 50 68 85 89 85 84 90 89 84 88 91 77 82 98 96 98 98 96 97 95 97 93
46 50 50 51 45 42 40 31 36 41 40 43 43 47 45 45 42 43 33 38 41 50 52 48 55 63 70 86 94 90 89 82 76 76 73 83 98 98 99 99 98 97 98 94 93
44 49 51 46 39 38 35 32 31 36 37 39 42 39 38 41 46 42 40 54 61 58 55 52 52 56 71 74 95 95 86 86 81 84 90 88 97 98 98 97 93 95 98 96 86
50 50 50 49 45 45 46 38 37 39 39 42 46 47 46 48 44 35 41 61 72 75 63 60 58 60 70 68 88 90 97 95 90 86 87 90 99 98 97 92 91 88 88 86 76

GFSSW_prec_cthk_123.txt.gz
RH
43 39 36 35 33 31 30 27 24 21 20 19 18 17 16 14 13 15 15 16 15 14 14 12 12 14 18 22 25 30 36 32 31 30 25 27 27 23 20 18 20 22 22 25 27
42 39 37 36 35 32 30 28 26 23 21 20 19 17 16 14 13 14 15 15 14 13 13 12 14 15 13 15 19 23 30 28 29 29 30 30 32 31 26 22 21 22 24 23 31
47 41 39 37 37 34 31 30 28 26 24 23 21 19 17 16 15 18 18 17 16 15 14 13 14 18 18 14 14 17 19 20 23 26 28 29 30 37 32 24 25 25 24 26 30
53 45 41 38 37 35 34 32 29 27 25 23 21 20 19 18 17 20 19 18 17 15 14 14 14 15 20 18 15 16 14 15 16 19 24 26 28 33 37 26 26 29 28 27 35
58 51 45 41 39 36 34 32 31 29 27 25 23 22 21 19 18 18 17 17 17 17 16 14 13 13 15 15 14 14 14 14 15 17 17 18 21 28 28 28 33 30 32 30 34
65 54 47 44 41 38 33 32 31 30 28 27 27 25 24 22 21 21 20 20 20 19 18 17 16 15 16 16 14 13 13 13 11 12 13 16 18 20 13 27 32 34 32 33 34
64 55 48 46 43 39 35 33 32 30 30 30 28 28 25 27 24 23 22 21 20 20 19 18 18 17 16 18 16 16 16 13 9 9 12 14 14 15 11 18 30 35 34 34 32
57 54 48 45 45 40 37 35 33 33 31 29 28 27 26 26 24 23 22 20 19 19 20 19 21 22 20 18 17 19 18 17 8 10 12 15 12 8 15 17 17 31 39 37 35
56 54 48 46 43 38 39 38 35 30 29 30 31 30 28 27 24 22 22 21 20 21 21 22 24 23 20 21 25 25 24 19 13 11 12 11 12 8 14 18 16 20 34 40 39
62 50 47 46 44 39 36 33 33 31 31 34 33 34 29 26 24 22 24 23 23 23 22 24 26 25 25 27 29 23 29 23 23 13 17 16 18 14 13 19 19 16 25 39 43
62 55 47 37 33 35 29 32 33 33 35 32 28 29 28 27 24 23 23 24 24 25 31 29 31 28 26 30 30 30 37 40 30 33 28 24 23 21 13 15 19 19 19 32 43
62 55 40 31 30 30 28 30 29 32 35 31 34 33 29 27 24 24 24 28 25 29 31 33 33 24 26 33 42 41 43 44 47 39 52 37 38 29 17 16 20 19 21 27 41
56 39 34 28 32 32 33 33 39 36 32 36 35 31 27 27 24 22 25 27 30 30 32 35 25 29 33 35 48 46 56 60 68 52 61 61 47 32 19 22 18 21 20 28 37
47 35 34 29 36 37 42 42 36 34 44 43 37 32 29 25 25 19 28 32 35 35 36 35 32 38 43 50 61 57 63 75 84 85 78 64 59 40 36 40 26 28 22 25 36
42 38 31 33 38 42 40 38 36 43 49 48 37 27 26 22 21 23 31 31 36 39 45 43 40 44 52 57 65 68 71 84 76 74 72 57 79 40 61 53 41 38 30 28 35
43 39 33 34 38 39 36 44 49 61 48 36 31 27 20 20 22 28 33 34 38 41 44 41 38 42 45 53 71 74 79 76 75 80 86 51 74 59 60 49 41 52 51 44 41
43 35 39 37 40 45 43 44 59 50 34 36 26 21 22 22 25 33 40 39 45 51 45 42 38 42 48 65 69 73 65 83 85 87 70 53 64 39 45 62 56 49 59 60 55
38 39 42 42 48 40 42 59 49 39 31 23 19 22 23 25 30 35 41 46 43 47 54 62 53 45 55 68 76 88 67 72 87 94 84 66 68 60 64 67 76 73 73 71 65
41 36 35 41 34 41 56 51 43 29 22 19 20 25 28 31 34 36 48 52 47 45 58 64 59 45 60 67 80 74 80 65 75 88 96 78 74 73 74 78 79 87 79 81 77
44 42 46 38 41 56 50 42 30 21 17 21 26 28 32 33 34 42 44 47 50 47 45 53 67 52 62 73 76 84 76 74 83 97 87 83 83 88 87 82 81 83 84 87 88
58 58 49 49 55 50 48 41 26 22 20 24 27 29 32 36 35 41 46 42 46 41 36 49 75 62 65 89 88 86 85 87 91 96 96 96 91 92 89 79 76 76 80 81 88
64 56 48 51 55 49 48 35 26 21 25 27 27 32 37 37 35 36 42 40 36 36 42 45 64 77 68 76 76 85 94 88 92 87 92 96 98 97 90 82 79 74 75 77 78
57 57 54 52 60 58 47 30 26 25 24 27 29 35 35 36 40 38 37 33 33 39 44 43 55 78 65 66 68 77 84 95 88 90 95 97 98 98 98 90 88 89 86 84 87
59 53 44 59 63 46 37 35 30 29 29 32 36 34 35 37 37 37 35 34 39 46 53 49 50 67 87 87 94 88 83 86 90 95 90 97 98 98 98 98 97 96 96 96 97
46 52 52 67 51 40 40 36 32 33 34 37 36 34 37 38 37 39 38 48 47 54 57 55 56 61 76 87 96 91 87 91 90 92 94 98 98 98 98 98 98 98 98 94 98
43 59 51 55 44 43 41 37 30 30 32 34 34 35 35 36 40 37 41 52 57 60 60 61 61 59 76 79 94 92 85 87 88 92 97 97 94 98 99 98 93 94 95 97 94
52 56 45 52 48 44 40 35 33 32 34 35 38 39 41 43 40 36 44 55 61 66 69 68 71 69 69 74 98 89 94 95 93 92 96 98 97 98 97 91 95 93 91 94 88

GFSSW_prec_cthk_126.txt.gz
RH
51 48 44 38 36 33 32 31 31 29 27 24 22 21 20 18 18 18 17 18 17 16 15 13 13 13 14 18 22 27 34 40 34 33 30 28 30 30 28 24 21 20 20 21 21
53 50 45 38 34 34 33 33 33 31 29 27 25 23 21 19 19 19 20 19 17 15 14 13 12 13 15 14 16 20 28 25 26 27 28 28 28 30 30 27 25 23 23 24 23
62 52 46 42 40 36 34 34 34 34 32 29 27 26 25 23 23 23 23 21 20 18 16 15 15 17 18 16 15 17 20 18 18 19 21 25 25 26 27 22 28 27 25 26 25
65 62 54 48 44 40 37 36 34 33 33 31 29 27 25 24 23 26 25 23 22 20 17 16 16 16 18 19 18 20 16 16 17 16 16 18 18 17 18 16 27 31 28 28 27
66 62 58 52 47 43 40 39 36 34 32 31 30 28 26 25 24 23 23 23 22 21 20 20 19 19 19 18 16 16 15 14 14 15 14 14 14 15 11 14 20 26 30 28 29
65 62 62 60 51 47 44 41 37 35 31 30 30 29 28 27 28 26 25 25 25 24 23 21 21 21 21 21 19 16 17 15 13 12 11 11 9 10 9 9 11 16 28 28 27
60 63 60 59 51 43 40 40 38 35 33 31 32 29 30 31 29 29 28 27 26 24 22 23 25 24 22 19 17 17 19 14 11 11 11 12 10 10 8 8 8 10 15 29 29
57 56 51 48 47 42 39 38 40 39 34 35 35 35 30 30 30 30 30 29 28 28 26 25 26 24 22 20 20 21 18 22 12 11 10 11 10 8 7 9 11 9 11 18 29
61 49 43 40 41 38 39 38 38 34 32 38 36 32 31 31 31 31 31 30 28 27 27 27 28 26 24 25 28 25 23 21 17 15 15 16 13 9 12 11 10 11 9 11 21
64 52 46 41 42 37 36 38 33 34 36 31 29 32 30 31 31 32 32 30 29 27 27 28 27 27 26 28 29 23 26 24 23 17 19 25 24 16 16 19 15 12 10 9 12
69 60 52 48 44 43 44 40 36 33 30 28 27 29 29 33 32 34 32 30 29 28 31 30 29 32 28 25 24 25 28 31 22 20 25 31 32 28 19 22 19 19 12 9 9
84 67 58 51 45 52 46 37 30 27 23 22 27 30 34 36 35 35 33 31 30 31 34 34 34 26 27 29 30 32 40 38 36 33 44 37 37 33 31 22 24 23 19 10 8
86 74 62 57 59 53 42 32 26 23 23 34 41 40 37 38 36 34 34 31 32 33 35 36 28 28 33 37 40 35 53 47 56 45 42 57 58 37 34 37 26 26 19 13 8
90 77 63 62 55 42 39 35 25 26 41 42 41 40 39 39 39 33 34 30 34 35 34 34 29 31 33 38 42 42 48 56 53 64 70 51 69 33 32 32 24 23 24 17 10
88 80 68 58 51 45 36 28 32 37 39 48 41 41 45 43 35 31 33 30 36 33 37 36 34 38 41 41 47 49 53 62 59 68 69 43 78 38 39 42 37 30 31 23 15
82 67 54 50 49 46 39 37 39 50 43 45 43 42 39 31 30 29 31 29 31 33 35 36 33 35 38 42 50 51 63 60 60 63 75 62 80 54 52 57 66 76 64 48 36
76 67 57 49 44 47 42 45 49 44 41 44 45 43 39 33 32 31 34 33 37 41 36 35 39 39 41 52 53 62 66 63 59 72 66 67 87 59 57 74 73 80 88 78 57
64 58 51 49 47 44 37 50 49 48 47 43 35 31 28 25 27 31 36 38 36 39 44 46 46 42 46 57 59 67 77 70 78 66 70 72 89 76 95 97 97 89 94 90 76
50 46 56 45 48 46 50 61 52 45 41 39 36 32 26 25 30 30 40 42 41 39 43 52 43 41 51 58 68 77 78 71 75 75 91 84 76 91 95 96 97 90 94 98 93
49 54 51 54 49 47 60 50 44 45 36 33 27 27 28 27 30 34 35 40 42 42 34 39 48 42 57 74 77 81 82 84 80 95 95 86 96 95 96 96 96 98 86 88 91
60 51 54 53 49 56 59 52 45 40 34 26 23 25 29 34 33 37 40 38 40 34 35 38 53 41 62 79 85 85 91 94 93 94 97 94 96 98 99 98 93 93 98 94 91
59 68 63 58 65 61 60 56 43 38 28 23 23 27 31 31 31 33 39 35 36 35 40 46 52 55 53 68 75 80 90 88 98 95 91 96 98 98 99 98 98 93 89 97 99
71 75 71 74 66 63 61 49 38 35 27 24 26 28 28 29 34 36 33 29 29 36 46 53 58 59 56 61 68 77 82 88 94 93 97 98 97 98 98 96 97 98 98 90 87
67 78 75 65 61 61 50 43 41 40 27 25 28 29 29 33 34 33 30 28 35 41 51 56 61 61 69 77 90 84 92 90 86 92 94 98 97 97 98 98 97 94 94 96 98
72 64 52 63 65 58 50 45 44 34 28 28 32 31 32 35 34 36 31 37 42 49 56 60 63 59 60 82 98 93 97 95 93 93 94 98 97 97 97 97 97 98 97 96 91
63 51 50 52 60 63 48 48 36 31 29 32 34 34 33 35 35 37 33 43 51 55 58 62 69 67 64 82 98 97 95 90 90 90 93 98 97 97 97 98 97 98 98 97 97
58 46 44 63 64 50 47 39 35 29 29 31 34 36 39 41 39 34 34 43 50 58 63 69 73 76 67 73 98 96 97 98 96 95 95 95 98 97 97 96 93 93 92 96 97

GFSSW_prec_cthk_129.txt.gz
RH
60 56 48 43 38 36 34 33 33 31 30 30 28 26 24 22 21 21 20 20 20 19 17 16 15 14 14 14 17 22 25 31 28 28 26 27 26 27 26 27 27 26 24 22 20
70 64 57 47 40 38 35 33 32 33 32 31 30 28 26 25 24 24 24 23 21 20 19 17 15 14 15 15 16 17 21 20 21 22 22 21 20 20 22 25 26 27 26 25 23
75 69 64 56 45 38 35 34 35 34 34 32 31 31 29 27 28 28 28 27 24 22 21 19 18 17 20 18 17 19 18 18 18 19 18 18 16 15 15 16 21 25 27 27 26
76 75 69 61 53 46 42 39 37 36 36 34 31 30 30 29 29 30 27 26 25 24 23 22 21 21 21 21 22 22 19 18 18 18 17 15 15 13 12 13 13 15 20 24 25
74 79 67 65 58 54 47 43 40 39 39 37 32 29 29 28 28 29 29 29 29 28 26 25 24 24 23 22 21 19 19 19 18 17 15 14 12 12 10 8 8 8 10 16 21
62 64 68 61 59 58 55 45 42 41 40 40 36 31 29 27 28 28 28 28 28 27 28 27 27 25 23 22 20 20 19 17 16 15 15 14 13 13 11 9 8 8 9 10 16
66 59 63 59 60 57 51 45 40 35 38 39 37 33 31 29 30 31 31 31 31 31 30 30 29 27 25 23 22 20 19 18 14 14 14 13 11 10 10 11 10 9 9 9 11
65 66 52 57 53 48 44 41 34 35 32 37 34 33 32 31 31 30 31 31 31 32 31 31 30 29 28 27 25 24 22 19 15 14 13 14 11 10 10 10 10 10 9 9 9
76 73 65 52 49 45 38 34 31 30 31 35 32 31 32 31 30 29 30 31 32 32 32 32 31 31 30 30 26 25 19 21 18 14 16 16 13 13 13 14 14 14 12 8 7
80 79 76 58 53 45 39 37 32 31 33 32 30 32 31 30 28 27 28 30 32 33 34 34 32 32 31 29 22 20 22 20 20 19 22 24 21 16 18 20 18 18 17 15 9
79 89 77 64 62 55 48 46 38 37 37 35 31 31 28 26 27 27 28 32 35 37 39 37 34 31 27 26 25 27 27 25 21 20 33 28 27 20 14 18 19 18 18 17 15
78 91 88 71 72 60 55 50 46 43 39 37 32 28 26 26 26 30 33 37 39 41 40 36 34 29 29 27 30 31 32 29 23 26 40 28 28 18 17 19 22 21 19 19 17
80 77 65 83 75 64 68 58 49 40 37 36 33 31 30 31 31 35 38 41 43 44 41 36 30 29 29 28 33 33 35 34 39 32 36 40 30 16 19 22 22 22 24 23 19
96 64 63 60 58 66 64 62 49 37 44 37 37 35 33 35 37 39 41 42 45 41 35 32 30 31 32 30 31 39 34 38 43 54 49 48 59 22 21 27 37 34 37 36 33
68 79 64 71 72 75 71 56 41 39 38 42 39 37 37 38 36 42 44 42 41 36 35 29 32 36 39 36 37 38 43 46 51 60 61 44 58 27 38 38 51 67 64 69 48
61 80 86 67 72 74 58 50 43 47 35 44 41 44 44 42 42 41 36 32 35 34 30 29 30 35 38 37 40 41 48 51 52 61 63 48 57 34 58 95 84 91 85 82 58
73 71 79 69 78 65 59 53 53 44 39 40 45 46 44 42 41 41 42 40 32 27 26 26 32 38 41 45 45 57 64 57 48 55 38 45 59 62 93 97 97 89 88 90 74
77 71 74 71 68 61 52 55 49 45 41 42 47 43 43 41 40 37 37 35 35 34 34 30 25 37 43 48 56 67 77 72 74 53 46 42 61 73 89 98 98 98 96 95 90
91 78 76 65 59 54 56 62 46 46 44 46 48 50 43 36 34 32 36 36 36 33 29 33 30 32 38 64 72 88 88 78 79 61 67 55 70 85 82 95 97 98 97 97 94
83 85 67 70 65 56 57 47 40 46 48 50 47 39 43 38 32 30 31 37 35 32 28 33 41 29 37 67 77 79 81 84 83 82 73 62 92 91 88 93 97 98 96 98 95
78 76 78 63 62 58 58 54 47 48 48 46 44 41 38 34 28 31 35 35 32 28 30 36 41 32 33 54 68 76 75 79 82 86 90 88 96 97 94 96 97 97 97 96 98
78 83 77 73 61 61 57 50 52 48 48 40 43 37 32 27 28 28 33 30 29 27 35 44 47 47 33 49 58 69 75 80 87 83 84 93 97 97 97 97 97 97 98 97 94
80 82 84 72 77 76 68 59 50 49 48 49 40 31 26 26 29 30 31 29 26 33 43 47 53 54 32 51 59 74 80 88 91 92 96 95 96 97 98 97 98 97 97 97 97
76 86 76 74 72 60 59 61 61 56 49 36 33 26 23 27 29 31 28 27 32 39 46 49 51 53 51 50 75 82 83 90 89 95 97 95 96 96 97 97 96 97 98 97 97
67 68 71 71 78 72 60 64 59 49 40 37 32 23 26 30 30 31 32 33 42 47 49 50 53 53 52 54 81 96 87 91 96 95 88 96 95 97 97 97 97 98 97 94 96
69 69 75 76 71 66 59 57 46 43 43 33 27 28 29 28 28 32 32 39 46 49 52 54 56 56 57 65 89 95 95 87 95 95 95 97 92 93 97 96 95 96 97 96 94
68 70 70 63 63 60 59 52 51 46 39 29 29 31 31 33 33 34 31 36 46 53 56 57 56 61 65 69 95 96 96 96 95 95 96 95 96 94 92 93 91 92 94 96 97